Time,TemperatureF,DewpointF,PressureIn,WindDirection,WindDirectionDegrees,WindSpeedMPH,WindSpeedGustMPH,Humidity,HourlyPrecipIn,Conditions,Clouds,dailyrainin,SoftwareType,DateUTC
2013-11-11 00:02:00,44.1,34.2,29.81,NW,313,13.0,13.0,68,0.00,,,0.00,Wunderground v.1.15,2013-11-11 05:02:00,
2013-11-11 00:03:00,44.1,34.2,29.81,West,275,9.0,13.0,68,0.00,,,0.00,Wunderground v.1.15,2013-11-11 05:03:00,
2013-11-11 00:04:00,44.1,34.2,29.81,WSW,237,4.0,13.0,68,0.00,,,0.00,Wunderground v.1.15,2013-11-11 05:04:00,
2013-11-11 00:05:00,44.1,34.2,29.81,WSW,238,8.0,13.0,68,0.00,,,0.00,Wunderground v.1.15,2013-11-11 05:05:00,
2013-11-11 00:07:00,44.1,34.6,29.81,West,271,10.0,13.0,69,0.00,,,0.00,Wunderground v.1.15,2013-11-11 05:07:00,
2013-11-11 00:08:00,44.1,34.6,29.81,WSW,241,3.0,13.0,69,0.00,,,0.00,Wunderground v.1.15,2013-11-11 05:08:00,
2013-11-11 00:11:00,44.1,34.6,29.81,West,272,5.0,7.0,69,0.00,,,0.00,Wunderground v.1.15,2013-11-11 05:11:00,
2013-11-11 00:12:00,44.1,34.6,29.81,West,272,1.0,7.0,69,0.00,,,0.00,Wunderground v.1.15,2013-11-11 05:12:00,
2013-11-11 00:13:00,44.0,34.5,29.81,NW,318,4.0,7.0,69,0.00,,,0.00,Wunderground v.1.15,2013-11-11 05:13:00,
2013-11-11 00:14:00,44.0,34.5,29.81,SW,225,2.0,7.0,69,0.00,,,0.00,Wunderground v.1.15,2013-11-11 05:14:00,
2013-11-11 00:15:00,44.0,34.5,29.81,WSW,253,7.0,7.0,69,0.00,,,0.00,Wunderground v.1.15,2013-11-11 05:15:00,
2013-11-11 00:17:00,44.0,34.5,29.81,West,269,7.0,7.0,69,0.00,,,0.00,Wunderground v.1.15,2013-11-11 05:17:00,
2013-11-11 00:20:00,43.9,34.7,29.82,WSW,258,6.0,6.0,70,0.00,,,0.00,Wunderground v.1.15,2013-11-11 05:20:00,
2013-11-11 00:21:00,43.9,34.7,29.82,WNW,294,3.0,6.0,70,0.00,,,0.00,Wunderground v.1.15,2013-11-11 05:21:00,
2013-11-11 00:24:00,43.8,34.6,29.82,WSW,257,7.0,8.0,70,0.00,,,0.00,Wunderground v.1.15,2013-11-11 05:24:00,
2013-11-11 00:25:00,43.7,34.6,29.82,West,263,7.0,8.0,70,0.00,,,0.00,Wunderground v.1.15,2013-11-11 05:25:00,
2013-11-11 00:26:00,43.7,34.6,29.82,West,275,7.0,8.0,70,0.00,,,0.00,Wunderground v.1.15,2013-11-11 05:26:00,
2013-11-11 00:27:00,43.7,34.6,29.82,WSW,248,5.0,8.0,70,0.00,,,0.00,Wunderground v.1.15,2013-11-11 05:27:00,
2013-11-11 00:29:00,43.6,34.5,29.83,West,271,6.0,8.0,70,0.00,,,0.00,Wunderground v.1.15,2013-11-11 05:29:00,
2013-11-11 00:34:00,43.3,34.5,29.82,West,279,8.0,14.0,71,0.00,,,0.00,Wunderground v.1.15,2013-11-11 05:34:00,
2013-11-11 00:35:00,43.3,34.5,29.83,WNW,291,13.0,14.0,71,0.00,,,0.00,Wunderground v.1.15,2013-11-11 05:35:00,
2013-11-11 00:36:00,43.2,34.4,29.83,West,279,6.0,14.0,71,0.00,,,0.00,Wunderground v.1.15,2013-11-11 05:36:00,
2013-11-11 00:37:00,43.2,34.4,29.82,West,274,7.0,14.0,71,0.00,,,0.00,Wunderground v.1.15,2013-11-11 05:37:00,
2013-11-11 00:38:00,43.2,34.4,29.83,West,279,11.0,14.0,71,0.00,,,0.00,Wunderground v.1.15,2013-11-11 05:38:00,
2013-11-11 00:42:00,43.0,34.2,29.83,WSW,247,8.0,11.0,71,0.00,,,0.00,Wunderground v.1.15,2013-11-11 05:42:00,
2013-11-11 00:43:00,43.0,34.2,29.83,North,360,5.0,11.0,71,0.00,,,0.00,Wunderground v.1.15,2013-11-11 05:43:00,
2013-11-11 00:48:00,42.8,34.0,29.83,NW,305,10.0,11.0,71,0.00,,,0.00,Wunderground v.1.15,2013-11-11 05:48:00,
2013-11-11 00:50:00,42.7,33.9,29.83,WSW,256,6.0,8.0,71,0.00,,,0.00,Wunderground v.1.15,2013-11-11 05:50:00,
2013-11-11 00:51:00,42.7,33.9,29.83,West,269,3.0,8.0,71,0.00,,,0.00,Wunderground v.1.15,2013-11-11 05:51:00,
2013-11-11 00:56:00,42.6,33.9,29.83,West,269,6.0,8.0,71,0.00,,,0.00,Wunderground v.1.15,2013-11-11 05:56:00,
2013-11-11 00:59:00,42.5,34.1,29.84,West,269,15.0,15.0,72,0.00,,,0.00,Wunderground v.1.15,2013-11-11 05:59:00,
2013-11-11 01:00:00,42.5,34.1,29.84,West,267,13.0,13.0,72,0.00,,,0.00,Wunderground v.1.15,2013-11-11 06:00:00,
2013-11-11 01:02:00,42.4,33.7,29.84,NW,315,8.0,13.0,71,0.00,,,0.00,Wunderground v.1.15,2013-11-11 06:02:00,
2013-11-11 01:03:00,42.4,34.0,29.84,WNW,295,9.0,13.0,72,0.00,,,0.00,Wunderground v.1.15,2013-11-11 06:03:00,
2013-11-11 01:04:00,42.4,33.7,29.84,West,272,8.0,13.0,71,0.00,,,0.00,Wunderground v.1.15,2013-11-11 06:04:00,
2013-11-11 01:06:00,42.3,33.9,29.84,West,274,11.0,13.0,72,0.00,,,0.00,Wunderground v.1.15,2013-11-11 06:06:00,
2013-11-11 01:08:00,42.3,33.6,29.84,WSW,257,11.0,13.0,71,0.00,,,0.00,Wunderground v.1.15,2013-11-11 06:08:00,
2013-11-11 01:11:00,42.2,33.5,29.84,WNW,282,5.0,9.0,71,0.00,,,0.00,Wunderground v.1.15,2013-11-11 06:11:00,
2013-11-11 01:12:00,42.2,33.5,29.84,WSW,252,1.0,9.0,71,0.00,,,0.00,Wunderground v.1.15,2013-11-11 06:12:00,
2013-11-11 01:13:00,42.2,33.5,29.84,WNW,300,14.0,14.0,71,0.00,,,0.00,Wunderground v.1.15,2013-11-11 06:13:00,
2013-11-11 01:16:00,42.1,33.4,29.85,WNW,287,9.0,14.0,71,0.00,,,0.00,Wunderground v.1.15,2013-11-11 06:16:00,
2013-11-11 01:18:00,42.0,33.3,29.85,WNW,296,5.0,14.0,71,0.00,,,0.00,Wunderground v.1.15,2013-11-11 06:18:00,
2013-11-11 01:19:00,42.0,33.3,29.85,West,271,3.0,14.0,71,0.00,,,0.00,Wunderground v.1.15,2013-11-11 06:19:00,
2013-11-11 01:21:00,42.0,33.3,29.85,West,277,11.0,11.0,71,0.00,,,0.00,Wunderground v.1.15,2013-11-11 06:21:00,
2013-11-11 01:23:00,42.0,33.3,29.85,WSW,248,3.0,11.0,71,0.00,,,0.00,Wunderground v.1.15,2013-11-11 06:23:00,
2013-11-11 01:24:00,42.0,33.3,29.85,West,278,4.0,11.0,71,0.00,,,0.00,Wunderground v.1.15,2013-11-11 06:24:00,
2013-11-11 01:27:00,41.9,33.2,29.85,West,263,9.0,11.0,71,0.00,,,0.00,Wunderground v.1.15,2013-11-11 06:27:00,
2013-11-11 01:29:00,41.9,33.2,29.85,WNW,298,3.0,11.0,71,0.00,,,0.00,Wunderground v.1.15,2013-11-11 06:29:00,
2013-11-11 01:31:00,41.8,33.1,29.86,West,273,1.0,6.0,71,0.00,,,0.00,Wunderground v.1.15,2013-11-11 06:31:00,
2013-11-11 01:32:00,41.8,33.1,29.86,WNW,291,9.0,9.0,71,0.00,,,0.00,Wunderground v.1.15,2013-11-11 06:32:00,
2013-11-11 01:34:00,41.8,33.1,29.86,WNW,285,7.0,12.0,71,0.00,,,0.00,Wunderground v.1.15,2013-11-11 06:34:00,
2013-11-11 01:35:00,41.7,33.0,29.86,WNW,294,5.0,12.0,71,0.00,,,0.00,Wunderground v.1.15,2013-11-11 06:35:00,
2013-11-11 01:39:00,41.6,32.9,29.86,NW,307,10.0,12.0,71,0.00,,,0.00,Wunderground v.1.15,2013-11-11 06:39:00,
2013-11-11 01:40:00,41.6,32.9,29.86,West,274,11.0,11.0,71,0.00,,,0.00,Wunderground v.1.15,2013-11-11 06:40:00,
2013-11-11 01:41:00,41.6,32.9,29.86,West,266,11.0,11.0,71,0.00,,,0.00,Wunderground v.1.15,2013-11-11 06:41:00,
2013-11-11 01:42:00,41.6,32.5,29.86,NW,311,5.0,11.0,70,0.00,,,0.00,Wunderground v.1.15,2013-11-11 06:42:00,
2013-11-11 01:43:00,41.6,32.5,29.86,West,276,8.0,11.0,70,0.00,,,0.00,Wunderground v.1.15,2013-11-11 06:43:00,
2013-11-11 01:46:00,41.5,32.4,29.86,WSW,249,7.0,14.0,70,0.00,,,0.00,Wunderground v.1.15,2013-11-11 06:46:00,
2013-11-11 01:48:00,41.5,32.4,29.87,West,276,6.0,14.0,70,0.00,,,0.00,Wunderground v.1.15,2013-11-11 06:48:00,
2013-11-11 01:49:00,41.5,32.4,29.87,WSW,244,6.0,14.0,70,0.00,,,0.00,Wunderground v.1.15,2013-11-11 06:49:00,
2013-11-11 01:50:00,41.5,32.4,29.87,WSW,256,15.0,15.0,70,0.00,,,0.00,Wunderground v.1.15,2013-11-11 06:50:00,
2013-11-11 01:51:00,41.5,32.4,29.87,NW,309,7.0,15.0,70,0.00,,,0.00,Wunderground v.1.15,2013-11-11 06:51:00,
2013-11-11 01:52:00,41.6,32.5,29.87,West,267,6.0,15.0,70,0.00,,,0.00,Wunderground v.1.15,2013-11-11 06:52:00,
2013-11-11 01:53:00,41.6,32.5,29.87,WSW,242,4.0,15.0,70,0.00,,,0.00,Wunderground v.1.15,2013-11-11 06:53:00,
2013-11-11 01:54:00,41.6,32.5,29.87,West,260,10.0,15.0,70,0.00,,,0.00,Wunderground v.1.15,2013-11-11 06:54:00,
2013-11-11 01:58:00,41.6,32.2,29.87,WSW,247,8.0,16.0,69,0.00,,,0.00,Wunderground v.1.15,2013-11-11 06:58:00,
2013-11-11 01:59:00,41.6,32.2,29.87,WSW,246,7.0,16.0,69,0.00,,,0.00,Wunderground v.1.15,2013-11-11 06:59:00,
2013-11-11 02:00:00,41.7,32.3,29.88,West,281,6.0,8.0,69,0.00,,,0.00,Wunderground v.1.15,2013-11-11 07:00:00,
2013-11-11 02:02:00,41.7,32.3,29.87,NW,321,7.0,8.0,69,0.00,,,0.00,Wunderground v.1.15,2013-11-11 07:02:00,
2013-11-11 02:03:00,41.7,32.3,29.87,WNW,283,10.0,15.0,69,0.00,,,0.00,Wunderground v.1.15,2013-11-11 07:03:00,
2013-11-11 02:04:00,41.7,32.3,29.87,West,273,5.0,15.0,69,0.00,,,0.00,Wunderground v.1.15,2013-11-11 07:04:00,
2013-11-11 02:05:00,41.7,32.3,29.87,WSW,241,4.0,15.0,69,0.00,,,0.00,Wunderground v.1.15,2013-11-11 07:05:00,
2013-11-11 02:07:00,41.7,32.3,29.87,WNW,300,3.0,15.0,69,0.00,,,0.00,Wunderground v.1.15,2013-11-11 07:07:00,
2013-11-11 02:08:00,41.6,32.2,29.87,WNW,290,3.0,15.0,69,0.00,,,0.00,Wunderground v.1.15,2013-11-11 07:08:00,
2013-11-11 02:09:00,41.6,32.2,29.87,West,269,1.0,15.0,69,0.00,,,0.00,Wunderground v.1.15,2013-11-11 07:09:00,
2013-11-11 02:10:00,41.6,32.2,29.87,West,271,6.0,8.0,69,0.00,,,0.00,Wunderground v.1.15,2013-11-11 07:10:00,
2013-11-11 02:12:00,41.6,32.2,29.87,WNW,285,7.0,13.0,69,0.00,,,0.00,Wunderground v.1.15,2013-11-11 07:12:00,
2013-11-11 02:13:00,41.6,32.2,29.87,WSW,250,5.0,13.0,69,0.00,,,0.00,Wunderground v.1.15,2013-11-11 07:13:00,
2013-11-11 02:14:00,41.5,32.1,29.88,WNW,288,10.0,13.0,69,0.00,,,0.00,Wunderground v.1.15,2013-11-11 07:14:00,
2013-11-11 02:16:00,41.5,32.1,29.88,West,266,4.0,13.0,69,0.00,,,0.00,Wunderground v.1.15,2013-11-11 07:16:00,
2013-11-11 02:17:00,41.5,32.1,29.88,NNW,337,5.0,13.0,69,0.00,,,0.00,Wunderground v.1.15,2013-11-11 07:17:00,
2013-11-11 02:18:00,41.5,32.1,29.88,NW,311,10.0,14.0,69,0.00,,,0.00,Wunderground v.1.15,2013-11-11 07:18:00,
2013-11-11 02:19:00,41.4,32.0,29.88,NW,321,9.0,14.0,69,0.00,,,0.00,Wunderground v.1.15,2013-11-11 07:19:00,
2013-11-11 02:20:00,41.4,32.0,29.88,West,275,8.0,8.0,69,0.00,,,0.00,Wunderground v.1.15,2013-11-11 07:20:00,
2013-11-11 02:21:00,41.4,32.0,29.88,WSW,246,5.0,8.0,69,0.00,,,0.00,Wunderground v.1.15,2013-11-11 07:21:00,
2013-11-11 02:22:00,41.3,31.9,29.88,West,279,9.0,13.0,69,0.00,,,0.00,Wunderground v.1.15,2013-11-11 07:22:00,
2013-11-11 02:23:00,41.3,31.9,29.88,NW,317,6.0,13.0,69,0.00,,,0.00,Wunderground v.1.15,2013-11-11 07:23:00,
2013-11-11 02:24:00,41.3,31.9,29.88,WNW,292,8.0,13.0,69,0.00,,,0.00,Wunderground v.1.15,2013-11-11 07:24:00,
2013-11-11 02:26:00,41.2,31.8,29.88,WNW,296,5.0,13.0,69,0.00,,,0.00,Wunderground v.1.15,2013-11-11 07:26:00,
2013-11-11 02:28:00,41.2,31.8,29.88,NNE,23,6.0,13.0,69,0.00,,,0.00,Wunderground v.1.15,2013-11-11 07:28:00,
2013-11-11 02:30:00,41.1,31.7,29.88,NNW,329,9.0,12.0,69,0.00,,,0.00,Wunderground v.1.15,2013-11-11 07:30:00,
2013-11-11 02:31:00,41.1,31.7,29.88,WNW,296,8.0,13.0,69,0.00,,,0.00,Wunderground v.1.15,2013-11-11 07:31:00,
2013-11-11 02:32:00,41.1,31.7,29.88,WNW,290,5.0,13.0,69,0.00,,,0.00,Wunderground v.1.15,2013-11-11 07:32:00,
2013-11-11 02:33:00,41.1,31.7,29.88,WNW,288,2.0,13.0,69,0.00,,,0.00,Wunderground v.1.15,2013-11-11 07:33:00,
2013-11-11 02:35:00,41.0,31.2,29.88,West,280,8.0,13.0,68,0.00,,,0.00,Wunderground v.1.15,2013-11-11 07:35:00,
2013-11-11 02:36:00,41.0,31.2,29.88,WSW,238,13.0,13.0,68,0.00,,,0.00,Wunderground v.1.15,2013-11-11 07:36:00,
2013-11-11 02:37:00,41.0,31.2,29.88,SW,226,4.0,13.0,68,0.00,,,0.00,Wunderground v.1.15,2013-11-11 07:37:00,
2013-11-11 02:38:00,41.0,31.2,29.88,WNW,298,5.0,13.0,68,0.00,,,0.00,Wunderground v.1.15,2013-11-11 07:38:00,
2013-11-11 02:39:00,41.0,31.2,29.88,West,272,9.0,13.0,68,0.00,,,0.00,Wunderground v.1.15,2013-11-11 07:39:00,
2013-11-11 02:41:00,41.0,31.2,29.88,West,275,5.0,6.0,68,0.00,,,0.00,Wunderground v.1.15,2013-11-11 07:41:00,
2013-11-11 02:42:00,41.0,31.2,29.89,NW,306,5.0,7.0,68,0.00,,,0.00,Wunderground v.1.15,2013-11-11 07:42:00,
2013-11-11 02:43:00,41.0,31.2,29.89,WSW,256,2.0,10.0,68,0.00,,,0.00,Wunderground v.1.15,2013-11-11 07:43:00,
2013-11-11 02:45:00,40.9,31.1,29.89,WNW,286,3.0,10.0,68,0.00,,,0.00,Wunderground v.1.15,2013-11-11 07:45:00,
2013-11-11 02:46:00,40.9,31.1,29.89,WSW,252,6.0,11.0,68,0.00,,,0.00,Wunderground v.1.15,2013-11-11 07:46:00,
2013-11-11 02:47:00,40.9,31.1,29.89,WNW,284,5.0,11.0,68,0.00,,,0.00,Wunderground v.1.15,2013-11-11 07:47:00,
2013-11-11 02:48:00,40.9,31.1,29.88,WNW,288,6.0,11.0,68,0.00,,,0.00,Wunderground v.1.15,2013-11-11 07:48:00,
2013-11-11 02:50:00,40.8,31.1,29.88,West,276,3.0,5.0,68,0.00,,,0.00,Wunderground v.1.15,2013-11-11 07:50:00,
2013-11-11 02:51:00,40.8,31.1,29.88,WNW,294,5.0,6.0,68,0.00,,,0.00,Wunderground v.1.15,2013-11-11 07:51:00,
2013-11-11 02:52:00,40.8,31.1,29.89,NW,311,3.0,7.0,68,0.00,,,0.00,Wunderground v.1.15,2013-11-11 07:52:00,
2013-11-11 02:53:00,40.8,31.1,29.89,West,277,7.0,9.0,68,0.00,,,0.00,Wunderground v.1.15,2013-11-11 07:53:00,
2013-11-11 02:55:00,40.7,31.0,29.89,West,280,5.0,9.0,68,0.00,,,0.00,Wunderground v.1.15,2013-11-11 07:55:00,
2013-11-11 02:56:00,40.7,31.0,29.89,WSW,257,6.0,9.0,68,0.00,,,0.00,Wunderground v.1.15,2013-11-11 07:56:00,
2013-11-11 02:57:00,40.7,31.0,29.89,NNW,347,5.0,14.0,68,0.00,,,0.00,Wunderground v.1.15,2013-11-11 07:57:00,
2013-11-11 02:58:00,40.7,31.0,29.89,WNW,292,7.0,14.0,68,0.00,,,0.00,Wunderground v.1.15,2013-11-11 07:58:00,
2013-11-11 03:00:00,40.7,31.0,29.89,West,267,4.0,7.0,68,0.00,,,0.00,Wunderground v.1.15,2013-11-11 08:00:00,
2013-11-11 03:01:00,40.6,30.9,29.89,WSW,257,9.0,10.0,68,0.00,,,0.00,Wunderground v.1.15,2013-11-11 08:01:00,
2013-11-11 03:03:00,40.6,30.9,29.89,WNW,297,3.0,17.0,68,0.00,,,0.00,Wunderground v.1.15,2013-11-11 08:03:00,
2013-11-11 03:04:00,40.6,30.9,29.89,West,264,4.0,17.0,68,0.00,,,0.00,Wunderground v.1.15,2013-11-11 08:04:00,
2013-11-11 03:05:00,40.6,30.5,29.89,WSW,240,4.0,17.0,67,0.00,,,0.00,Wunderground v.1.15,2013-11-11 08:05:00,
2013-11-11 03:06:00,40.6,30.5,29.89,WSW,254,6.0,17.0,67,0.00,,,0.00,Wunderground v.1.15,2013-11-11 08:06:00,
2013-11-11 03:07:00,40.6,30.5,29.89,NNW,336,4.0,17.0,67,0.00,,,0.00,Wunderground v.1.15,2013-11-11 08:07:00,
2013-11-11 03:08:00,40.6,30.5,29.89,West,271,6.0,17.0,67,0.00,,,0.00,Wunderground v.1.15,2013-11-11 08:08:00,
2013-11-11 03:09:00,40.6,30.5,29.89,West,266,4.0,17.0,67,0.00,,,0.00,Wunderground v.1.15,2013-11-11 08:09:00,
2013-11-11 03:11:00,40.6,30.5,29.89,NW,310,3.0,7.0,67,0.00,,,0.00,Wunderground v.1.15,2013-11-11 08:11:00,
2013-11-11 03:12:00,40.6,30.5,29.89,WNW,283,3.0,7.0,67,0.00,,,0.00,Wunderground v.1.15,2013-11-11 08:12:00,
2013-11-11 03:13:00,40.6,30.5,29.89,NW,319,2.0,7.0,67,0.00,,,0.00,Wunderground v.1.15,2013-11-11 08:13:00,
2013-11-11 03:14:00,40.6,30.5,29.89,WNW,296,10.0,10.0,67,0.00,,,0.00,Wunderground v.1.15,2013-11-11 08:14:00,
2013-11-11 03:16:00,40.6,30.5,29.90,NW,316,7.0,11.0,67,0.00,,,0.00,Wunderground v.1.15,2013-11-11 08:16:00,
2013-11-11 03:17:00,40.6,30.5,29.90,West,275,3.0,11.0,67,0.00,,,0.00,Wunderground v.1.15,2013-11-11 08:17:00,
2013-11-11 03:19:00,40.6,30.5,29.89,WNW,287,5.0,11.0,67,0.00,,,0.00,Wunderground v.1.15,2013-11-11 08:19:00,
2013-11-11 03:21:00,40.6,30.5,29.90,WNW,288,3.0,7.0,67,0.00,,,0.00,Wunderground v.1.15,2013-11-11 08:21:00,
2013-11-11 03:22:00,40.6,30.5,29.90,WSW,246,3.0,7.0,67,0.00,,,0.00,Wunderground v.1.15,2013-11-11 08:22:00,
2013-11-11 03:23:00,40.5,30.4,29.90,West,280,4.0,7.0,67,0.00,,,0.00,Wunderground v.1.15,2013-11-11 08:23:00,
2013-11-11 03:24:00,40.5,30.4,29.90,West,281,2.0,7.0,67,0.00,,,0.00,Wunderground v.1.15,2013-11-11 08:24:00,
2013-11-11 03:25:00,40.5,30.4,29.90,WSW,251,6.0,9.0,67,0.00,,,0.00,Wunderground v.1.15,2013-11-11 08:25:00,
2013-11-11 03:26:00,40.5,30.4,29.90,WNW,292,3.0,9.0,67,0.00,,,0.00,Wunderground v.1.15,2013-11-11 08:26:00,
2013-11-11 03:27:00,40.5,30.4,29.90,West,281,8.0,9.0,67,0.00,,,0.00,Wunderground v.1.15,2013-11-11 08:27:00,
2013-11-11 03:28:00,40.5,30.4,29.90,West,277,6.0,11.0,67,0.00,,,0.00,Wunderground v.1.15,2013-11-11 08:28:00,
2013-11-11 03:30:00,40.5,30.4,29.90,West,264,4.0,5.0,67,0.00,,,0.00,Wunderground v.1.15,2013-11-11 08:30:00,
2013-11-11 03:31:00,40.5,30.4,29.90,NW,311,15.0,15.0,67,0.00,,,0.00,Wunderground v.1.15,2013-11-11 08:31:00,
2013-11-11 03:32:00,40.5,30.4,29.90,SW,236,2.0,15.0,67,0.00,,,0.00,Wunderground v.1.15,2013-11-11 08:32:00,
2013-11-11 03:34:00,40.5,30.4,29.90,WSW,255,7.0,15.0,67,0.00,,,0.00,Wunderground v.1.15,2013-11-11 08:34:00,
2013-11-11 03:35:00,40.5,30.4,29.90,NW,304,9.0,15.0,67,0.00,,,0.00,Wunderground v.1.15,2013-11-11 08:35:00,
2013-11-11 03:37:00,40.5,30.4,29.90,NW,319,3.0,15.0,67,0.00,,,0.00,Wunderground v.1.15,2013-11-11 08:37:00,
2013-11-11 03:39:00,40.5,30.4,29.90,WNW,303,7.0,15.0,67,0.00,,,0.00,Wunderground v.1.15,2013-11-11 08:39:00,
2013-11-11 03:40:00,40.5,30.4,29.90,West,279,9.0,10.0,67,0.00,,,0.00,Wunderground v.1.15,2013-11-11 08:40:00,
2013-11-11 03:41:00,40.5,30.4,29.90,WNW,302,7.0,16.0,67,0.00,,,0.00,Wunderground v.1.15,2013-11-11 08:41:00,
2013-11-11 03:42:00,40.5,30.4,29.90,NNE,16,5.0,16.0,67,0.00,,,0.00,Wunderground v.1.15,2013-11-11 08:42:00,
2013-11-11 03:44:00,40.5,30.4,29.91,WNW,302,7.0,16.0,67,0.00,,,0.00,Wunderground v.1.15,2013-11-11 08:44:00,
2013-11-11 03:46:00,40.5,30.4,29.91,WNW,286,9.0,16.0,67,0.00,,,0.00,Wunderground v.1.15,2013-11-11 08:46:00,
2013-11-11 03:47:00,40.5,30.4,29.91,WNW,303,4.0,16.0,67,0.00,,,0.00,Wunderground v.1.15,2013-11-11 08:47:00,
2013-11-11 03:48:00,40.4,30.3,29.91,West,261,4.0,16.0,67,0.00,,,0.00,Wunderground v.1.15,2013-11-11 08:48:00,
2013-11-11 03:49:00,40.5,30.4,29.91,WNW,282,5.0,16.0,67,0.00,,,0.00,Wunderground v.1.15,2013-11-11 08:49:00,
2013-11-11 03:51:00,40.4,30.3,29.91,WNW,302,7.0,13.0,67,0.00,,,0.00,Wunderground v.1.15,2013-11-11 08:51:00,
2013-11-11 03:53:00,40.4,30.3,29.91,West,260,5.0,15.0,67,0.00,,,0.00,Wunderground v.1.15,2013-11-11 08:53:00,
2013-11-11 03:54:00,40.4,30.3,29.91,NW,306,10.0,15.0,67,0.00,,,0.00,Wunderground v.1.15,2013-11-11 08:54:00,
2013-11-11 03:56:00,40.4,30.3,29.91,NW,306,13.0,19.0,67,0.00,,,0.00,Wunderground v.1.15,2013-11-11 08:56:00,
2013-11-11 03:57:00,40.3,30.2,29.91,NW,309,9.0,19.0,67,0.00,,,0.00,Wunderground v.1.15,2013-11-11 08:57:00,
2013-11-11 03:58:00,40.3,30.2,29.91,West,261,3.0,19.0,67,0.00,,,0.00,Wunderground v.1.15,2013-11-11 08:58:00,
2013-11-11 03:59:00,40.3,30.2,29.91,West,280,8.0,19.0,67,0.00,,,0.00,Wunderground v.1.15,2013-11-11 08:59:00,
2013-11-11 04:01:00,40.2,30.1,29.92,NE,42,4.0,11.0,67,0.00,,,0.00,Wunderground v.1.15,2013-11-11 09:01:00,
2013-11-11 04:02:00,40.2,30.1,29.92,West,263,8.0,11.0,67,0.00,,,0.00,Wunderground v.1.15,2013-11-11 09:02:00,
2013-11-11 04:03:00,40.2,30.1,29.91,WNW,290,24.0,24.0,67,0.00,,,0.00,Wunderground v.1.15,2013-11-11 09:03:00,
2013-11-11 04:04:00,40.2,30.1,29.91,NW,313,14.0,24.0,67,0.00,,,0.00,Wunderground v.1.15,2013-11-11 09:04:00,
2013-11-11 04:06:00,40.2,30.1,29.92,West,281,9.0,24.0,67,0.00,,,0.00,Wunderground v.1.15,2013-11-11 09:06:00,
2013-11-11 04:07:00,40.2,30.1,29.92,WNW,300,8.0,24.0,67,0.00,,,0.00,Wunderground v.1.15,2013-11-11 09:07:00,
2013-11-11 04:08:00,40.2,30.1,29.92,West,281,5.0,24.0,67,0.00,,,0.00,Wunderground v.1.15,2013-11-11 09:08:00,
2013-11-11 04:09:00,40.2,30.1,29.92,NNW,327,7.0,24.0,67,0.00,,,0.00,Wunderground v.1.15,2013-11-11 09:09:00,
2013-11-11 04:11:00,40.2,30.1,29.92,North,355,3.0,11.0,67,0.00,,,0.00,Wunderground v.1.15,2013-11-11 09:11:00,
2013-11-11 04:12:00,40.2,30.1,29.92,WNW,301,4.0,11.0,67,0.00,,,0.00,Wunderground v.1.15,2013-11-11 09:12:00,
2013-11-11 04:13:00,40.2,30.1,29.92,NNW,333,6.0,11.0,67,0.00,,,0.00,Wunderground v.1.15,2013-11-11 09:13:00,
2013-11-11 04:14:00,40.2,30.1,29.92,WNW,300,7.0,14.0,67,0.00,,,0.00,Wunderground v.1.15,2013-11-11 09:14:00,
2013-11-11 04:16:00,40.2,30.1,29.92,West,275,6.0,14.0,67,0.00,,,0.00,Wunderground v.1.15,2013-11-11 09:16:00,
2013-11-11 04:18:00,40.1,30.0,29.92,West,279,5.0,14.0,67,0.00,,,0.00,Wunderground v.1.15,2013-11-11 09:18:00,
2013-11-11 04:19:00,40.1,30.0,29.92,NW,317,9.0,14.0,67,0.00,,,0.00,Wunderground v.1.15,2013-11-11 09:19:00,
2013-11-11 04:20:00,40.1,30.0,29.92,NNW,329,17.0,17.0,67,0.00,,,0.00,Wunderground v.1.15,2013-11-11 09:20:00,
2013-11-11 04:21:00,40.1,30.4,29.92,WNW,286,3.0,17.0,68,0.00,,,0.00,Wunderground v.1.15,2013-11-11 09:21:00,
2013-11-11 04:22:00,40.1,30.4,29.92,WNW,292,7.0,17.0,68,0.00,,,0.00,Wunderground v.1.15,2013-11-11 09:22:00,
2013-11-11 04:23:00,40.1,30.4,29.92,WSW,241,7.0,17.0,68,0.00,,,0.00,Wunderground v.1.15,2013-11-11 09:23:00,
2013-11-11 04:24:00,40.1,30.4,29.92,West,281,7.0,17.0,68,0.00,,,0.00,Wunderground v.1.15,2013-11-11 09:24:00,
2013-11-11 04:25:00,40.1,30.4,29.93,WNW,298,7.0,17.0,68,0.00,,,0.00,Wunderground v.1.15,2013-11-11 09:25:00,
2013-11-11 04:27:00,40.1,30.4,29.93,West,261,5.0,17.0,68,0.00,,,0.00,Wunderground v.1.15,2013-11-11 09:27:00,
2013-11-11 04:28:00,40.1,30.4,29.93,WNW,292,6.0,17.0,68,0.00,,,0.00,Wunderground v.1.15,2013-11-11 09:28:00,
2013-11-11 04:29:00,40.1,30.4,29.93,NNW,341,7.0,17.0,68,0.00,,,0.00,Wunderground v.1.15,2013-11-11 09:29:00,
2013-11-11 04:30:00,40.1,30.4,29.93,West,277,14.0,14.0,68,0.00,,,0.00,Wunderground v.1.15,2013-11-11 09:30:00,
2013-11-11 04:33:00,40.0,30.3,29.93,West,268,3.0,14.0,68,0.00,,,0.00,Wunderground v.1.15,2013-11-11 09:33:00,
2013-11-11 04:35:00,40.0,30.3,29.93,WNW,302,9.0,14.0,68,0.00,,,0.00,Wunderground v.1.15,2013-11-11 09:35:00,
2013-11-11 04:36:00,40.0,30.3,29.93,WNW,294,7.0,14.0,68,0.00,,,0.00,Wunderground v.1.15,2013-11-11 09:36:00,
2013-11-11 04:38:00,40.0,30.3,29.93,NW,307,11.0,14.0,68,0.00,,,0.00,Wunderground v.1.15,2013-11-11 09:38:00,
2013-11-11 04:39:00,40.0,30.3,29.93,WNW,300,5.0,14.0,68,0.00,,,0.00,Wunderground v.1.15,2013-11-11 09:39:00,
2013-11-11 04:40:00,40.0,30.3,29.94,West,266,7.0,10.0,68,0.00,,,0.00,Wunderground v.1.15,2013-11-11 09:40:00,
2013-11-11 04:41:00,40.0,30.3,29.94,WNW,294,3.0,10.0,68,0.00,,,0.00,Wunderground v.1.15,2013-11-11 09:41:00,
2013-11-11 04:42:00,40.0,30.3,29.94,WNW,298,4.0,10.0,68,0.00,,,0.00,Wunderground v.1.15,2013-11-11 09:42:00,
2013-11-11 04:43:00,40.0,30.3,29.94,WNW,288,2.0,10.0,68,0.00,,,0.00,Wunderground v.1.15,2013-11-11 09:43:00,
2013-11-11 04:44:00,40.0,30.3,29.94,West,281,6.0,10.0,68,0.00,,,0.00,Wunderground v.1.15,2013-11-11 09:44:00,
2013-11-11 04:45:00,39.9,30.2,29.94,WSW,242,3.0,10.0,68,0.00,,,0.00,Wunderground v.1.15,2013-11-11 09:45:00,
2013-11-11 04:46:00,39.9,30.2,29.94,West,272,5.0,13.0,68,0.00,,,0.00,Wunderground v.1.15,2013-11-11 09:46:00,
2013-11-11 04:47:00,39.9,30.2,29.94,WSW,245,0.0,13.0,68,0.00,,,0.00,Wunderground v.1.15,2013-11-11 09:47:00,
2013-11-11 04:48:00,39.9,30.2,29.94,WNW,302,5.0,13.0,68,0.00,,,0.00,Wunderground v.1.15,2013-11-11 09:48:00,
2013-11-11 04:49:00,39.8,30.1,29.94,West,270,3.0,13.0,68,0.00,,,0.00,Wunderground v.1.15,2013-11-11 09:49:00,
2013-11-11 04:50:00,39.8,30.1,29.94,West,273,9.0,9.0,68,0.00,,,0.00,Wunderground v.1.15,2013-11-11 09:50:00,
2013-11-11 04:51:00,39.8,30.1,29.94,West,281,3.0,11.0,68,0.00,,,0.00,Wunderground v.1.15,2013-11-11 09:51:00,
2013-11-11 04:53:00,39.8,30.1,29.95,West,265,3.0,11.0,68,0.00,,,0.00,Wunderground v.1.15,2013-11-11 09:53:00,
2013-11-11 04:54:00,39.7,30.0,29.95,WSW,255,2.0,11.0,68,0.00,,,0.00,Wunderground v.1.15,2013-11-11 09:54:00,
2013-11-11 04:55:00,39.7,30.0,29.95,SW,230,4.0,11.0,68,0.00,,,0.00,Wunderground v.1.15,2013-11-11 09:55:00,
2013-11-11 04:57:00,39.7,30.0,29.95,WNW,296,8.0,12.0,68,0.00,,,0.00,Wunderground v.1.15,2013-11-11 09:57:00,
2013-11-11 04:58:00,39.7,30.0,29.95,WSW,242,4.0,12.0,68,0.00,,,0.00,Wunderground v.1.15,2013-11-11 09:58:00,
2013-11-11 04:59:00,39.7,30.0,29.95,West,260,4.0,12.0,68,0.00,,,0.00,Wunderground v.1.15,2013-11-11 09:59:00,
2013-11-11 05:00:00,39.7,30.0,29.95,WNW,303,2.0,5.0,68,0.00,,,0.00,Wunderground v.1.15,2013-11-11 10:00:00,
2013-11-11 05:02:00,39.6,29.9,29.95,NNW,330,7.0,7.0,68,0.00,,,0.00,Wunderground v.1.15,2013-11-11 10:02:00,
2013-11-11 05:03:00,39.6,29.9,29.96,NW,316,5.0,9.0,68,0.00,,,0.00,Wunderground v.1.15,2013-11-11 10:03:00,
2013-11-11 05:04:00,39.6,29.9,29.96,SW,236,3.0,9.0,68,0.00,,,0.00,Wunderground v.1.15,2013-11-11 10:04:00,
2013-11-11 05:05:00,39.6,31.3,29.96,WNW,286,8.0,9.0,72,0.00,,,0.00,Wunderground v.1.15,2013-11-11 10:05:00,
2013-11-11 05:06:00,39.5,31.2,29.96,WSW,256,6.0,9.0,72,0.00,,,0.00,Wunderground v.1.15,2013-11-11 10:06:00,
2013-11-11 05:07:00,39.5,29.8,29.96,West,275,2.0,9.0,68,0.00,,,0.00,Wunderground v.1.15,2013-11-11 10:07:00,
2013-11-11 05:08:00,39.5,29.8,29.96,WNW,292,5.0,9.0,68,0.00,,,0.00,Wunderground v.1.15,2013-11-11 10:08:00,
2013-11-11 05:09:00,39.5,29.8,29.96,NW,325,9.0,12.0,68,0.00,,,0.00,Wunderground v.1.15,2013-11-11 10:09:00,
2013-11-11 05:10:00,39.5,29.8,29.96,WNW,295,10.0,10.0,68,0.00,,,0.00,Wunderground v.1.15,2013-11-11 10:10:00,
2013-11-11 05:11:00,39.5,29.8,29.96,West,280,10.0,10.0,68,0.00,,,0.00,Wunderground v.1.15,2013-11-11 10:11:00,
2013-11-11 05:12:00,39.4,29.7,29.96,West,275,7.0,14.0,68,0.00,,,0.00,Wunderground v.1.15,2013-11-11 10:12:00,
2013-11-11 05:14:00,39.4,29.7,29.96,NW,317,13.0,14.0,68,0.00,,,0.00,Wunderground v.1.15,2013-11-11 10:14:00,
2013-11-11 05:15:00,39.4,29.7,29.97,NW,324,6.0,14.0,68,0.00,,,0.00,Wunderground v.1.15,2013-11-11 10:15:00,
2013-11-11 05:16:00,39.4,29.7,29.97,West,263,6.0,14.0,68,0.00,,,0.00,Wunderground v.1.15,2013-11-11 10:16:00,
2013-11-11 05:17:00,39.3,29.6,29.97,WNW,294,14.0,14.0,68,0.00,,,0.00,Wunderground v.1.15,2013-11-11 10:17:00,
2013-11-11 05:20:00,39.4,29.7,29.96,NW,317,9.0,9.0,68,0.00,,,0.00,Wunderground v.1.15,2013-11-11 10:20:00,
2013-11-11 05:21:00,39.4,29.7,29.96,NW,319,7.0,13.0,68,0.00,,,0.00,Wunderground v.1.15,2013-11-11 10:21:00,
2013-11-11 05:22:00,39.4,29.3,29.96,West,264,9.0,13.0,67,0.00,,,0.00,Wunderground v.1.15,2013-11-11 10:22:00,
2013-11-11 05:23:00,39.4,29.7,29.96,NW,309,10.0,21.0,68,0.00,,,0.00,Wunderground v.1.15,2013-11-11 10:23:00,
2013-11-11 05:25:00,39.5,29.8,29.97,WSW,249,7.0,21.0,68,0.00,,,0.00,Wunderground v.1.15,2013-11-11 10:25:00,
2013-11-11 05:26:00,39.5,29.8,29.97,West,277,4.0,21.0,68,0.00,,,0.00,Wunderground v.1.15,2013-11-11 10:26:00,
2013-11-11 05:27:00,39.5,29.8,29.97,North,360,4.0,21.0,68,0.00,,,0.00,Wunderground v.1.15,2013-11-11 10:27:00,
2013-11-11 05:28:00,39.5,29.8,29.97,NW,306,7.0,21.0,68,0.00,,,0.00,Wunderground v.1.15,2013-11-11 10:28:00,
2013-11-11 05:30:00,39.5,29.4,29.97,West,265,3.0,10.0,67,0.00,,,0.00,Wunderground v.1.15,2013-11-11 10:30:00,
2013-11-11 05:31:00,39.5,29.4,29.97,NNW,328,14.0,14.0,67,0.00,,,0.00,Wunderground v.1.15,2013-11-11 10:31:00,
2013-11-11 05:32:00,39.6,29.5,29.97,NW,304,12.0,18.0,67,0.00,,,0.00,Wunderground v.1.15,2013-11-11 10:32:00,
2013-11-11 05:33:00,39.5,29.4,29.97,WNW,294,8.0,18.0,67,0.00,,,0.00,Wunderground v.1.15,2013-11-11 10:33:00,
2013-11-11 05:35:00,39.6,29.5,29.97,WNW,290,7.0,18.0,67,0.00,,,0.00,Wunderground v.1.15,2013-11-11 10:35:00,
2013-11-11 05:37:00,39.6,29.5,29.97,West,262,7.0,18.0,67,0.00,,,0.00,Wunderground v.1.15,2013-11-11 10:37:00,
2013-11-11 05:38:00,39.6,29.5,29.98,WNW,294,6.0,18.0,67,0.00,,,0.00,Wunderground v.1.15,2013-11-11 10:38:00,
2013-11-11 05:40:00,39.7,29.6,29.98,WNW,303,8.0,12.0,67,0.00,,,0.00,Wunderground v.1.15,2013-11-11 10:40:00,
2013-11-11 05:42:00,39.7,29.6,29.98,NW,306,6.0,12.0,67,0.00,,,0.00,Wunderground v.1.15,2013-11-11 10:42:00,
2013-11-11 05:43:00,39.7,29.6,29.98,WNW,296,7.0,12.0,67,0.00,,,0.00,Wunderground v.1.15,2013-11-11 10:43:00,
2013-11-11 05:46:00,39.6,29.5,29.98,WNW,302,3.0,12.0,67,0.00,,,0.00,Wunderground v.1.15,2013-11-11 10:46:00,
2013-11-11 05:47:00,39.6,29.5,29.98,WNW,294,2.0,12.0,67,0.00,,,0.00,Wunderground v.1.15,2013-11-11 10:47:00,
2013-11-11 05:48:00,39.6,29.5,29.98,NW,308,8.0,12.0,67,0.00,,,0.00,Wunderground v.1.15,2013-11-11 10:48:00,
2013-11-11 05:49:00,39.6,29.5,29.98,West,281,5.0,12.0,67,0.00,,,0.00,Wunderground v.1.15,2013-11-11 10:49:00,
2013-11-11 05:51:00,39.5,29.4,29.98,WNW,302,3.0,8.0,67,0.00,,,0.00,Wunderground v.1.15,2013-11-11 10:51:00,
2013-11-11 05:52:00,39.5,29.4,29.98,NW,318,7.0,8.0,67,0.00,,,0.00,Wunderground v.1.15,2013-11-11 10:52:00,
2013-11-11 05:53:00,39.5,29.4,29.98,NW,304,6.0,8.0,67,0.00,,,0.00,Wunderground v.1.15,2013-11-11 10:53:00,
2013-11-11 05:55:00,39.4,29.3,29.98,WNW,302,5.0,9.0,67,0.00,,,0.00,Wunderground v.1.15,2013-11-11 10:55:00,
2013-11-11 05:57:00,39.4,29.3,29.98,NW,325,2.0,9.0,67,0.00,,,0.00,Wunderground v.1.15,2013-11-11 10:57:00,
2013-11-11 05:58:00,39.3,29.3,29.98,NW,309,9.0,9.0,67,0.00,,,0.00,Wunderground v.1.15,2013-11-11 10:58:00,
2013-11-11 05:59:00,39.3,29.3,29.98,NW,325,2.0,9.0,67,0.00,,,0.00,Wunderground v.1.15,2013-11-11 10:59:00,
2013-11-11 06:00:00,39.3,29.3,29.98,NW,320,2.0,5.0,67,0.00,,,0.00,Wunderground v.1.15,2013-11-11 11:00:00,
2013-11-11 06:02:00,39.2,29.2,29.98,WSW,240,3.0,7.0,67,0.00,,,0.00,Wunderground v.1.15,2013-11-11 11:02:00,
2013-11-11 06:04:00,39.2,29.5,29.98,WNW,294,3.0,8.0,68,0.00,,,0.00,Wunderground v.1.15,2013-11-11 11:04:00,
2013-11-11 06:05:00,39.2,29.2,29.98,NW,319,7.0,8.0,67,0.00,,,0.00,Wunderground v.1.15,2013-11-11 11:05:00,
2013-11-11 06:07:00,39.1,29.1,29.98,NW,306,2.0,8.0,67,0.00,,,0.00,Wunderground v.1.15,2013-11-11 11:07:00,
2013-11-11 06:08:00,39.1,29.1,29.98,WNW,297,3.0,8.0,67,0.00,,,0.00,Wunderground v.1.15,2013-11-11 11:08:00,
2013-11-11 06:09:00,39.1,29.1,29.98,WNW,292,4.0,8.0,67,0.00,,,0.00,Wunderground v.1.15,2013-11-11 11:09:00,
2013-11-11 06:11:00,39.0,29.3,29.98,WNW,282,2.0,9.0,68,0.00,,,0.00,Wunderground v.1.15,2013-11-11 11:11:00,
2013-11-11 06:12:00,39.0,29.3,29.98,NW,325,4.0,9.0,68,0.00,,,0.00,Wunderground v.1.15,2013-11-11 11:12:00,
2013-11-11 06:13:00,38.9,29.2,29.98,West,281,3.0,9.0,68,0.00,,,0.00,Wunderground v.1.15,2013-11-11 11:13:00,
2013-11-11 06:14:00,38.9,29.2,29.98,NW,326,7.0,9.0,68,0.00,,,0.00,Wunderground v.1.15,2013-11-11 11:14:00,
2013-11-11 06:16:00,38.9,29.2,29.99,NW,316,11.0,11.0,68,0.00,,,0.00,Wunderground v.1.15,2013-11-11 11:16:00,
2013-11-11 06:18:00,38.9,29.2,29.99,West,279,6.0,12.0,68,0.00,,,0.00,Wunderground v.1.15,2013-11-11 11:18:00,
2013-11-11 06:19:00,38.8,29.1,29.99,WNW,300,5.0,12.0,68,0.00,,,0.00,Wunderground v.1.15,2013-11-11 11:19:00,
2013-11-11 06:21:00,38.8,29.1,29.99,NNW,331,6.0,14.0,68,0.00,,,0.00,Wunderground v.1.15,2013-11-11 11:21:00,
2013-11-11 06:23:00,38.8,29.1,29.99,NW,310,4.0,14.0,68,0.00,,,0.00,Wunderground v.1.15,2013-11-11 11:23:00,
2013-11-11 06:24:00,38.7,29.4,29.99,NW,312,14.0,14.0,69,0.00,,,0.00,Wunderground v.1.15,2013-11-11 11:24:00,
2013-11-11 06:25:00,38.7,29.0,29.99,WNW,298,11.0,14.0,68,0.00,,,0.00,Wunderground v.1.15,2013-11-11 11:25:00,
2013-11-11 06:27:00,38.7,29.0,29.99,WNW,289,8.0,14.0,68,0.00,,,0.00,Wunderground v.1.15,2013-11-11 11:27:00,
2013-11-11 06:28:00,38.7,29.4,29.99,NNW,329,7.0,14.0,69,0.00,,,0.00,Wunderground v.1.15,2013-11-11 11:28:00,
2013-11-11 06:29:00,38.7,29.4,29.99,NW,317,10.0,14.0,69,0.00,,,0.00,Wunderground v.1.15,2013-11-11 11:29:00,
2013-11-11 06:30:00,38.7,29.4,29.99,West,279,6.0,8.0,69,0.00,,,0.00,Wunderground v.1.15,2013-11-11 11:30:00,
2013-11-11 06:32:00,38.7,29.4,29.99,WSW,254,10.0,10.0,69,0.00,,,0.00,Wunderground v.1.15,2013-11-11 11:32:00,
2013-11-11 06:33:00,38.7,29.4,29.99,WNW,303,6.0,11.0,69,0.00,,,0.00,Wunderground v.1.15,2013-11-11 11:33:00,
2013-11-11 06:34:00,38.7,29.4,29.99,NW,306,7.0,11.0,69,0.00,,,0.00,Wunderground v.1.15,2013-11-11 11:34:00,
2013-11-11 06:35:00,38.7,29.4,29.99,NNW,339,5.0,11.0,69,0.00,,,0.00,Wunderground v.1.15,2013-11-11 11:35:00,
2013-11-11 06:37:00,38.7,29.4,29.99,WNW,292,5.0,11.0,69,0.00,,,0.00,Wunderground v.1.15,2013-11-11 11:37:00,
2013-11-11 06:39:00,38.7,29.4,29.99,WNW,300,9.0,11.0,69,0.00,,,0.00,Wunderground v.1.15,2013-11-11 11:39:00,
2013-11-11 06:40:00,38.7,29.4,30.00,North,350,3.0,7.0,69,0.00,,,0.00,Wunderground v.1.15,2013-11-11 11:40:00,
2013-11-11 06:42:00,38.7,29.4,30.00,West,281,2.0,7.0,69,0.00,,,0.00,Wunderground v.1.15,2013-11-11 11:42:00,
2013-11-11 06:44:00,38.7,29.4,30.00,NW,323,9.0,10.0,69,0.00,,,0.00,Wunderground v.1.15,2013-11-11 11:44:00,
2013-11-11 06:45:00,38.7,29.4,30.00,WNW,286,2.0,10.0,69,0.00,,,0.00,Wunderground v.1.15,2013-11-11 11:45:00,
2013-11-11 06:47:00,38.6,29.3,30.00,WNW,288,5.0,10.0,69,0.00,,,0.00,Wunderground v.1.15,2013-11-11 11:47:00,
2013-11-11 06:49:00,38.6,29.3,30.00,West,266,4.0,10.0,69,0.00,,,0.00,Wunderground v.1.15,2013-11-11 11:49:00,
2013-11-11 06:50:00,38.6,29.3,30.01,NW,323,5.0,5.0,69,0.00,,,0.00,Wunderground v.1.15,2013-11-11 11:50:00,
2013-11-11 06:54:00,38.5,29.6,30.01,West,259,6.0,12.0,70,0.00,,,0.00,Wunderground v.1.15,2013-11-11 11:54:00,
2013-11-11 06:55:00,38.6,29.7,30.01,NW,311,5.0,12.0,70,0.00,,,0.00,Wunderground v.1.15,2013-11-11 11:55:00,
2013-11-11 06:56:00,38.5,29.6,30.01,North,355,4.0,12.0,70,0.00,,,0.00,Wunderground v.1.15,2013-11-11 11:56:00,
2013-11-11 06:59:00,38.5,29.6,30.01,WNW,290,3.0,12.0,70,0.00,,,0.00,Wunderground v.1.15,2013-11-11 11:59:00,
2013-11-11 07:00:00,38.5,29.6,30.02,West,259,4.0,5.0,70,0.00,,,0.00,Wunderground v.1.15,2013-11-11 12:00:00,
2013-11-11 07:01:00,38.5,29.6,30.02,West,277,5.0,10.0,70,0.00,,,0.00,Wunderground v.1.15,2013-11-11 12:01:00,
2013-11-11 07:04:00,38.6,29.7,30.02,West,280,3.0,11.0,70,0.00,,,0.00,Wunderground v.1.15,2013-11-11 12:04:00,
2013-11-11 07:05:00,38.6,29.7,30.02,West,264,3.0,11.0,70,0.00,,,0.00,Wunderground v.1.15,2013-11-11 12:05:00,
2013-11-11 07:06:00,38.6,29.7,30.02,WNW,298,4.0,11.0,70,0.00,,,0.00,Wunderground v.1.15,2013-11-11 12:06:00,
2013-11-11 07:10:00,38.6,29.7,30.02,West,263,3.0,4.0,70,0.00,,,0.00,Wunderground v.1.15,2013-11-11 12:10:00,
2013-11-11 07:11:00,38.6,29.7,30.02,WNW,299,4.0,5.0,70,0.00,,,0.00,Wunderground v.1.15,2013-11-11 12:11:00,
2013-11-11 07:15:00,38.6,29.7,30.03,West,273,3.0,7.0,70,0.00,,,0.00,Wunderground v.1.15,2013-11-11 12:15:00,
2013-11-11 07:16:00,38.6,29.7,30.03,West,271,2.0,7.0,70,0.00,,,0.00,Wunderground v.1.15,2013-11-11 12:16:00,
2013-11-11 07:17:00,38.7,29.8,30.03,NW,313,3.0,7.0,70,0.00,,,0.00,Wunderground v.1.15,2013-11-11 12:17:00,
2013-11-11 07:20:00,38.7,29.8,30.03,West,277,4.0,4.0,70,0.00,,,0.00,Wunderground v.1.15,2013-11-11 12:20:00,
2013-11-11 07:21:00,38.7,29.8,30.03,West,263,7.0,7.0,70,0.00,,,0.00,Wunderground v.1.15,2013-11-11 12:21:00,
2013-11-11 07:22:00,38.7,29.8,30.03,West,270,2.0,9.0,70,0.00,,,0.00,Wunderground v.1.15,2013-11-11 12:22:00,
2013-11-11 07:26:00,38.8,29.8,30.04,NW,325,5.0,9.0,70,0.00,,,0.00,Wunderground v.1.15,2013-11-11 12:26:00,
2013-11-11 07:27:00,38.8,29.8,30.04,WSW,251,7.0,11.0,70,0.00,,,0.00,Wunderground v.1.15,2013-11-11 12:27:00,
2013-11-11 07:32:00,38.9,29.9,30.04,WNW,283,7.0,7.0,70,0.00,,,0.00,Wunderground v.1.15,2013-11-11 12:32:00,
2013-11-11 07:33:00,39.0,29.7,30.04,West,263,6.0,8.0,69,0.00,,,0.00,Wunderground v.1.15,2013-11-11 12:33:00,
2013-11-11 07:37:00,39.1,29.8,30.04,NW,315,8.0,12.0,69,0.00,,,0.00,Wunderground v.1.15,2013-11-11 12:37:00,
2013-11-11 07:38:00,39.2,29.9,30.04,NW,317,3.0,12.0,69,0.00,,,0.00,Wunderground v.1.15,2013-11-11 12:38:00,
2013-11-11 07:42:00,39.4,29.7,30.04,NW,325,9.0,15.0,68,0.00,,,0.00,Wunderground v.1.15,2013-11-11 12:42:00,
2013-11-11 07:43:00,39.5,29.8,30.04,NNW,328,13.0,15.0,68,0.00,,,0.00,Wunderground v.1.15,2013-11-11 12:43:00,
2013-11-11 07:44:00,39.6,29.9,30.04,NW,312,11.0,15.0,68,0.00,,,0.00,Wunderground v.1.15,2013-11-11 12:44:00,
2013-11-11 07:47:00,39.7,30.0,30.04,West,278,6.0,15.0,68,0.00,,,0.00,Wunderground v.1.15,2013-11-11 12:47:00,
2013-11-11 07:48:00,39.8,30.1,30.04,WSW,248,6.0,15.0,68,0.00,,,0.00,Wunderground v.1.15,2013-11-11 12:48:00,
2013-11-11 07:49:00,39.8,30.1,30.04,NW,315,4.0,15.0,68,0.00,,,0.00,Wunderground v.1.15,2013-11-11 12:49:00,
2013-11-11 07:52:00,40.0,29.9,30.04,WNW,283,7.0,9.0,67,0.00,,,0.00,Wunderground v.1.15,2013-11-11 12:52:00,
2013-11-11 07:53:00,40.1,30.0,30.04,West,281,6.0,13.0,67,0.00,,,0.00,Wunderground v.1.15,2013-11-11 12:53:00,
2013-11-11 07:54:00,40.0,29.9,30.04,NW,326,5.0,13.0,67,0.00,,,0.00,Wunderground v.1.15,2013-11-11 12:54:00,
2013-11-11 07:55:00,40.1,30.0,30.04,North,355,3.0,13.0,67,0.00,,,0.00,Wunderground v.1.15,2013-11-11 12:55:00,
2013-11-11 07:58:00,40.2,30.1,30.04,WNW,288,5.0,13.0,67,0.00,,,0.00,Wunderground v.1.15,2013-11-11 12:58:00,
2013-11-11 07:59:00,40.3,30.2,30.04,West,271,7.0,13.0,67,0.00,,,0.00,Wunderground v.1.15,2013-11-11 12:59:00,
2013-11-11 08:00:00,40.3,30.2,30.04,West,261,3.0,6.0,67,0.00,,,0.00,Wunderground v.1.15,2013-11-11 13:00:00,
2013-11-11 08:10:00,40.8,30.3,30.04,NW,315,3.0,6.0,66,0.00,,,0.00,Wunderground v.1.15,2013-11-11 13:10:00,
2013-11-11 08:11:00,40.8,30.3,30.04,West,260,4.0,7.0,66,0.00,,,0.00,Wunderground v.1.15,2013-11-11 13:11:00,
2013-11-11 08:15:00,41.0,30.5,30.05,West,272,3.0,7.0,66,0.00,,,0.00,Wunderground v.1.15,2013-11-11 13:15:00,
2013-11-11 08:16:00,41.0,30.5,30.05,West,275,3.0,7.0,66,0.00,,,0.00,Wunderground v.1.15,2013-11-11 13:16:00,
2013-11-11 08:20:00,41.1,30.6,30.05,West,265,11.0,13.0,66,0.00,,,0.00,Wunderground v.1.15,2013-11-11 13:20:00,
2013-11-11 08:21:00,41.1,30.6,30.05,West,260,6.0,13.0,66,0.00,,,0.00,Wunderground v.1.15,2013-11-11 13:21:00,
2013-11-11 08:22:00,41.2,30.7,30.05,West,267,0.0,13.0,66,0.00,,,0.00,Wunderground v.1.15,2013-11-11 13:22:00,
2013-11-11 08:26:00,41.4,30.5,30.05,West,269,4.0,13.0,65,0.00,,,0.00,Wunderground v.1.15,2013-11-11 13:26:00,
2013-11-11 08:27:00,41.4,30.5,30.05,West,263,12.0,15.0,65,0.00,,,0.00,Wunderground v.1.15,2013-11-11 13:27:00,
2013-11-11 08:31:00,41.6,30.7,30.05,WNW,302,3.0,12.0,65,0.00,,,0.00,Wunderground v.1.15,2013-11-11 13:31:00,
2013-11-11 08:32:00,41.6,30.7,30.05,NW,322,7.0,12.0,65,0.00,,,0.00,Wunderground v.1.15,2013-11-11 13:32:00,
2013-11-11 08:36:00,41.8,30.9,30.05,West,265,3.0,12.0,65,0.00,,,0.00,Wunderground v.1.15,2013-11-11 13:36:00,
2013-11-11 08:37:00,41.8,30.5,30.05,NNW,330,2.0,12.0,64,0.00,,,0.00,Wunderground v.1.15,2013-11-11 13:37:00,
2013-11-11 08:38:00,41.8,30.5,30.05,West,268,2.0,12.0,64,0.00,,,0.00,Wunderground v.1.15,2013-11-11 13:38:00,
2013-11-11 08:41:00,41.9,31.0,30.05,WSW,238,3.0,5.0,65,0.00,,,0.00,Wunderground v.1.15,2013-11-11 13:41:00,
2013-11-11 08:42:00,42.0,31.1,30.05,West,280,2.0,5.0,65,0.00,,,0.00,Wunderground v.1.15,2013-11-11 13:42:00,
2013-11-11 08:43:00,42.0,31.1,30.05,NW,316,6.0,10.0,65,0.00,,,0.00,Wunderground v.1.15,2013-11-11 13:43:00,
2013-11-11 08:44:00,42.0,30.7,30.05,NW,318,7.0,10.0,64,0.00,,,0.00,Wunderground v.1.15,2013-11-11 13:44:00,
2013-11-11 08:46:00,42.1,31.2,30.06,WNW,285,5.0,14.0,65,0.00,,,0.00,Wunderground v.1.15,2013-11-11 13:46:00,
2013-11-11 08:47:00,42.2,30.9,30.06,NNW,336,8.0,14.0,64,0.00,,,0.00,Wunderground v.1.15,2013-11-11 13:47:00,
2013-11-11 08:48:00,42.2,30.9,30.06,West,279,6.0,14.0,64,0.00,,,0.00,Wunderground v.1.15,2013-11-11 13:48:00,
2013-11-11 08:49:00,42.3,31.0,30.06,NW,325,8.0,14.0,64,0.00,,,0.00,Wunderground v.1.15,2013-11-11 13:49:00,
2013-11-11 08:51:00,42.3,31.0,30.06,NW,304,3.0,7.0,64,0.00,,,0.00,Wunderground v.1.15,2013-11-11 13:51:00,
2013-11-11 08:52:00,42.4,31.1,30.06,WSW,258,3.0,9.0,64,0.00,,,0.00,Wunderground v.1.15,2013-11-11 13:52:00,
2013-11-11 08:53:00,42.4,31.1,30.06,WSW,253,4.0,9.0,64,0.00,,,0.00,Wunderground v.1.15,2013-11-11 13:53:00,
2013-11-11 08:54:00,42.4,30.7,30.06,North,355,1.0,9.0,63,0.00,,,0.00,Wunderground v.1.15,2013-11-11 13:54:00,
2013-11-11 08:55:00,42.4,30.7,30.06,ENE,59,0.0,9.0,63,0.00,,,0.00,Wunderground v.1.15,2013-11-11 13:55:00,
2013-11-11 08:56:00,42.5,30.8,30.06,WNW,282,6.0,9.0,63,0.00,,,0.00,Wunderground v.1.15,2013-11-11 13:56:00,
2013-11-11 08:57:00,42.5,30.8,30.06,NNW,330,7.0,9.0,63,0.00,,,0.00,Wunderground v.1.15,2013-11-11 13:57:00,
2013-11-11 08:58:00,42.5,30.8,30.06,NW,322,6.0,9.0,63,0.00,,,0.00,Wunderground v.1.15,2013-11-11 13:58:00,
2013-11-11 08:59:00,42.6,31.3,30.06,WNW,299,9.0,12.0,64,0.00,,,0.00,Wunderground v.1.15,2013-11-11 13:59:00,
2013-11-11 09:00:00,42.7,31.4,30.06,NW,306,9.0,10.0,64,0.00,,,0.00,Wunderground v.1.15,2013-11-11 14:00:00,
2013-11-11 09:02:00,42.7,31.4,30.06,West,277,4.0,13.0,64,0.00,,,0.00,Wunderground v.1.15,2013-11-11 14:02:00,
2013-11-11 09:03:00,42.8,31.5,30.06,WNW,298,12.0,13.0,64,0.00,,,0.00,Wunderground v.1.15,2013-11-11 14:03:00,
2013-11-11 09:05:00,42.8,31.1,30.06,NW,306,8.0,16.0,63,0.00,,,0.00,Wunderground v.1.15,2013-11-11 14:05:00,
2013-11-11 09:07:00,42.9,31.2,30.06,SW,231,5.0,16.0,63,0.00,,,0.00,Wunderground v.1.15,2013-11-11 14:07:00,
2013-11-11 09:08:00,43.0,31.3,30.06,SSW,196,3.0,16.0,63,0.00,,,0.00,Wunderground v.1.15,2013-11-11 14:08:00,
2013-11-11 09:10:00,43.1,31.0,30.06,SW,234,5.0,8.0,62,0.00,,,0.00,Wunderground v.1.15,2013-11-11 14:10:00,
2013-11-11 09:11:00,43.1,31.0,30.06,WNW,287,6.0,8.0,62,0.00,,,0.00,Wunderground v.1.15,2013-11-11 14:11:00,
2013-11-11 09:12:00,43.2,31.1,30.06,SW,228,2.0,8.0,62,0.00,,,0.00,Wunderground v.1.15,2013-11-11 14:12:00,
2013-11-11 09:13:00,43.2,31.1,30.06,SW,233,2.0,8.0,62,0.00,,,0.00,Wunderground v.1.15,2013-11-11 14:13:00,
2013-11-11 09:14:00,43.2,31.1,30.06,West,281,8.0,8.0,62,0.00,,,0.00,Wunderground v.1.15,2013-11-11 14:14:00,
2013-11-11 09:15:00,43.2,31.1,30.06,NNW,330,4.0,8.0,62,0.00,,,0.00,Wunderground v.1.15,2013-11-11 14:15:00,
2013-11-11 09:16:00,43.3,31.1,30.06,NNW,345,3.0,8.0,62,0.00,,,0.00,Wunderground v.1.15,2013-11-11 14:16:00,
2013-11-11 09:18:00,43.4,31.2,30.06,WSW,242,4.0,10.0,62,0.00,,,0.00,Wunderground v.1.15,2013-11-11 14:18:00,
2013-11-11 09:19:00,43.4,30.8,30.06,WSW,258,5.0,12.0,61,0.00,,,0.00,Wunderground v.1.15,2013-11-11 14:19:00,
2013-11-11 09:20:00,43.4,30.8,30.06,WSW,246,4.0,5.0,61,0.00,,,0.00,Wunderground v.1.15,2013-11-11 14:20:00,
2013-11-11 09:21:00,43.4,30.8,30.06,West,264,4.0,9.0,61,0.00,,,0.00,Wunderground v.1.15,2013-11-11 14:21:00,
2013-11-11 09:23:00,43.4,31.2,30.06,WSW,251,3.0,16.0,62,0.00,,,0.00,Wunderground v.1.15,2013-11-11 14:23:00,
2013-11-11 09:25:00,43.5,30.9,30.06,NW,320,7.0,16.0,61,0.00,,,0.00,Wunderground v.1.15,2013-11-11 14:25:00,
2013-11-11 09:27:00,43.5,31.3,30.06,SW,234,7.0,16.0,62,0.00,,,0.00,Wunderground v.1.15,2013-11-11 14:27:00,
2013-11-11 09:28:00,43.6,31.4,30.06,WNW,284,5.0,16.0,62,0.00,,,0.00,Wunderground v.1.15,2013-11-11 14:28:00,
2013-11-11 09:29:00,43.6,31.4,30.06,WSW,241,3.0,16.0,62,0.00,,,0.00,Wunderground v.1.15,2013-11-11 14:29:00,
2013-11-11 09:30:00,43.6,31.4,30.06,West,265,4.0,6.0,62,0.00,,,0.00,Wunderground v.1.15,2013-11-11 14:30:00,
2013-11-11 09:32:00,43.7,31.5,30.06,SW,229,2.0,6.0,62,0.00,,,0.00,Wunderground v.1.15,2013-11-11 14:32:00,
2013-11-11 09:33:00,43.7,31.5,30.06,West,262,6.0,6.0,62,0.00,,,0.00,Wunderground v.1.15,2013-11-11 14:33:00,
2013-11-11 09:35:00,43.7,31.5,30.06,SW,236,5.0,10.0,62,0.00,,,0.00,Wunderground v.1.15,2013-11-11 14:35:00,
2013-11-11 09:36:00,43.8,31.6,30.06,NW,325,2.0,10.0,62,0.00,,,0.00,Wunderground v.1.15,2013-11-11 14:36:00,
2013-11-11 09:38:00,43.8,31.6,30.06,West,279,0.0,10.0,62,0.00,,,0.00,Wunderground v.1.15,2013-11-11 14:38:00,
2013-11-11 09:40:00,43.9,31.7,30.06,WNW,300,4.0,8.0,62,0.00,,,0.00,Wunderground v.1.15,2013-11-11 14:40:00,
2013-11-11 09:41:00,44.0,31.8,30.06,WNW,294,8.0,11.0,62,0.00,,,0.00,Wunderground v.1.15,2013-11-11 14:41:00,
2013-11-11 09:43:00,44.0,31.4,30.06,NW,314,1.0,11.0,61,0.00,,,0.00,Wunderground v.1.15,2013-11-11 14:43:00,
2013-11-11 09:45:00,44.1,31.5,30.06,NW,306,8.0,12.0,61,0.00,,,0.00,Wunderground v.1.15,2013-11-11 14:45:00,
2013-11-11 09:46:00,44.1,31.5,30.06,WSW,238,9.0,15.0,61,0.00,,,0.00,Wunderground v.1.15,2013-11-11 14:46:00,
2013-11-11 09:48:00,44.2,32.0,30.06,WSW,243,4.0,15.0,62,0.00,,,0.00,Wunderground v.1.15,2013-11-11 14:48:00,
2013-11-11 09:50:00,44.3,31.7,30.06,West,271,11.0,11.0,61,0.00,,,0.00,Wunderground v.1.15,2013-11-11 14:50:00,
2013-11-11 09:51:00,44.3,31.7,30.06,WSW,238,8.0,12.0,61,0.00,,,0.00,Wunderground v.1.15,2013-11-11 14:51:00,
2013-11-11 09:52:00,44.4,32.2,30.06,NW,313,5.0,12.0,62,0.00,,,0.00,Wunderground v.1.15,2013-11-11 14:52:00,
2013-11-11 09:53:00,44.4,32.2,30.06,West,273,3.0,12.0,62,0.00,,,0.00,Wunderground v.1.15,2013-11-11 14:53:00,
2013-11-11 09:54:00,44.5,32.3,30.06,NW,322,8.0,12.0,62,0.00,,,0.00,Wunderground v.1.15,2013-11-11 14:54:00,
2013-11-11 09:56:00,44.6,32.0,30.06,WSW,242,5.0,12.0,61,0.00,,,0.00,Wunderground v.1.15,2013-11-11 14:56:00,
2013-11-11 09:58:00,44.7,32.1,30.06,NW,304,9.0,12.0,61,0.00,,,0.00,Wunderground v.1.15,2013-11-11 14:58:00,
2013-11-11 09:59:00,44.7,32.1,30.06,West,265,5.0,12.0,61,0.00,,,0.00,Wunderground v.1.15,2013-11-11 14:59:00,
2013-11-11 10:02:00,44.9,32.3,30.06,WNW,293,5.0,7.0,61,0.00,,,0.00,Wunderground v.1.15,2013-11-11 15:02:00,
2013-11-11 10:03:00,45.0,32.8,30.06,West,262,6.0,9.0,62,0.00,,,0.00,Wunderground v.1.15,2013-11-11 15:03:00,
2013-11-11 10:04:00,45.0,32.8,30.06,WNW,302,3.0,9.0,62,0.00,,,0.00,Wunderground v.1.15,2013-11-11 15:04:00,
2013-11-11 10:07:00,45.1,32.8,30.06,WSW,247,7.0,9.0,62,0.00,,,0.00,Wunderground v.1.15,2013-11-11 15:07:00,
2013-11-11 10:08:00,45.2,32.1,30.06,WSW,249,5.0,11.0,60,0.00,,,0.00,Wunderground v.1.15,2013-11-11 15:08:00,
2013-11-11 10:09:00,45.2,32.1,30.06,North,360,5.0,11.0,60,0.00,,,0.00,Wunderground v.1.15,2013-11-11 15:09:00,
2013-11-11 10:12:00,45.3,32.2,30.06,WNW,285,7.0,12.0,60,0.00,,,0.00,Wunderground v.1.15,2013-11-11 15:12:00,
2013-11-11 10:13:00,45.3,32.2,30.06,West,273,2.0,12.0,60,0.00,,,0.00,Wunderground v.1.15,2013-11-11 15:13:00,
2013-11-11 10:14:00,45.3,32.2,30.06,West,276,2.0,12.0,60,0.00,,,0.00,Wunderground v.1.15,2013-11-11 15:14:00,
2013-11-11 10:17:00,45.4,32.7,30.07,WNW,296,1.0,13.0,61,0.00,,,0.00,Wunderground v.1.15,2013-11-11 15:17:00,
2013-11-11 10:19:00,45.5,32.4,30.07,WSW,254,2.0,13.0,60,0.00,,,0.00,Wunderground v.1.15,2013-11-11 15:19:00,
2013-11-11 10:20:00,45.5,32.4,30.06,WSW,252,2.0,5.0,60,0.00,,,0.00,Wunderground v.1.15,2013-11-11 15:20:00,
2013-11-11 10:22:00,45.5,32.8,30.06,WNW,294,4.0,10.0,61,0.00,,,0.00,Wunderground v.1.15,2013-11-11 15:22:00,
2013-11-11 10:23:00,45.6,32.9,30.06,WNW,288,5.0,10.0,61,0.00,,,0.00,Wunderground v.1.15,2013-11-11 15:23:00,
2013-11-11 10:24:00,45.6,32.5,30.06,WNW,285,9.0,11.0,60,0.00,,,0.00,Wunderground v.1.15,2013-11-11 15:24:00,
2013-11-11 10:25:00,45.6,32.5,30.06,WSW,257,4.0,11.0,60,0.00,,,0.00,Wunderground v.1.15,2013-11-11 15:25:00,
2013-11-11 10:28:00,45.7,32.2,30.05,WSW,247,9.0,14.0,59,0.00,,,0.00,Wunderground v.1.15,2013-11-11 15:28:00,
2013-11-11 10:29:00,45.7,32.2,30.05,West,279,6.0,14.0,59,0.00,,,0.00,Wunderground v.1.15,2013-11-11 15:29:00,
2013-11-11 10:30:00,45.7,32.2,30.05,West,261,4.0,6.0,59,0.00,,,0.00,Wunderground v.1.15,2013-11-11 15:30:00,
2013-11-11 10:33:00,45.8,32.7,30.05,WSW,253,4.0,12.0,60,0.00,,,0.00,Wunderground v.1.15,2013-11-11 15:33:00,
2013-11-11 10:34:00,45.8,32.7,30.05,West,261,8.0,12.0,60,0.00,,,0.00,Wunderground v.1.15,2013-11-11 15:34:00,
2013-11-11 10:35:00,45.9,31.9,30.05,WNW,298,6.0,12.0,58,0.00,,,0.00,Wunderground v.1.15,2013-11-11 15:35:00,
2013-11-11 10:38:00,45.9,32.4,30.05,WNW,292,8.0,13.0,59,0.00,,,0.00,Wunderground v.1.15,2013-11-11 15:38:00,
2013-11-11 10:39:00,46.0,32.0,30.05,WNW,284,7.0,13.0,58,0.00,,,0.00,Wunderground v.1.15,2013-11-11 15:39:00,
2013-11-11 10:40:00,46.0,31.6,30.05,WNW,284,7.0,12.0,57,0.00,,,0.00,Wunderground v.1.15,2013-11-11 15:40:00,
2013-11-11 10:41:00,46.0,31.6,30.05,WSW,256,7.0,12.0,57,0.00,,,0.00,Wunderground v.1.15,2013-11-11 15:41:00,
2013-11-11 10:43:00,46.0,31.6,30.05,WSW,245,6.0,12.0,57,0.00,,,0.00,Wunderground v.1.15,2013-11-11 15:43:00,
2013-11-11 10:44:00,46.1,31.7,30.05,WNW,282,10.0,13.0,57,0.00,,,0.00,Wunderground v.1.15,2013-11-11 15:44:00,
2013-11-11 10:45:00,46.1,31.7,30.05,NNW,331,5.0,16.0,57,0.00,,,0.00,Wunderground v.1.15,2013-11-11 15:45:00,
2013-11-11 10:46:00,46.1,31.7,30.05,NNW,332,4.0,16.0,57,0.00,,,0.00,Wunderground v.1.15,2013-11-11 15:46:00,
2013-11-11 10:49:00,46.2,32.2,30.05,West,276,6.0,16.0,58,0.00,,,0.00,Wunderground v.1.15,2013-11-11 15:49:00,
2013-11-11 10:50:00,46.2,32.2,30.05,West,273,7.0,9.0,58,0.00,,,0.00,Wunderground v.1.15,2013-11-11 15:50:00,
2013-11-11 10:51:00,46.2,32.2,30.05,WNW,300,7.0,10.0,58,0.00,,,0.00,Wunderground v.1.15,2013-11-11 15:51:00,
2013-11-11 10:54:00,46.3,31.9,30.05,WNW,286,4.0,10.0,57,0.00,,,0.00,Wunderground v.1.15,2013-11-11 15:54:00,
2013-11-11 10:55:00,46.4,32.0,30.05,SW,230,1.0,10.0,57,0.00,,,0.00,Wunderground v.1.15,2013-11-11 15:55:00,
2013-11-11 10:56:00,46.4,31.5,30.05,West,275,9.0,10.0,56,0.00,,,0.00,Wunderground v.1.15,2013-11-11 15:56:00,
2013-11-11 10:57:00,46.4,32.0,30.05,WNW,298,5.0,10.0,57,0.00,,,0.00,Wunderground v.1.15,2013-11-11 15:57:00,
2013-11-11 10:59:00,46.5,32.1,30.04,NW,322,6.0,14.0,57,0.00,,,0.00,Wunderground v.1.15,2013-11-11 15:59:00,
2013-11-11 11:00:00,46.5,32.1,30.04,WSW,255,7.0,10.0,57,0.00,,,0.00,Wunderground v.1.15,2013-11-11 16:00:00,
2013-11-11 11:02:00,46.5,31.2,30.04,SW,227,10.0,11.0,55,0.00,,,0.00,Wunderground v.1.15,2013-11-11 16:02:00,
2013-11-11 11:03:00,46.5,31.2,30.04,WSW,247,6.0,11.0,55,0.00,,,0.00,Wunderground v.1.15,2013-11-11 16:03:00,
2013-11-11 11:04:00,46.5,31.2,30.04,NW,307,4.0,11.0,55,0.00,,,0.00,Wunderground v.1.15,2013-11-11 16:04:00,
2013-11-11 11:05:00,46.5,31.2,30.04,WNW,283,5.0,11.0,55,0.00,,,0.00,Wunderground v.1.15,2013-11-11 16:05:00,
2013-11-11 11:07:00,46.4,31.1,30.04,WSW,252,7.0,16.0,55,0.00,,,0.00,Wunderground v.1.15,2013-11-11 16:07:00,
2013-11-11 11:08:00,46.4,31.1,30.04,WSW,244,6.0,16.0,55,0.00,,,0.00,Wunderground v.1.15,2013-11-11 16:08:00,
2013-11-11 11:09:00,46.4,31.1,30.04,WSW,244,3.0,16.0,55,0.00,,,0.00,Wunderground v.1.15,2013-11-11 16:09:00,
2013-11-11 11:10:00,46.4,31.1,30.04,West,271,8.0,9.0,55,0.00,,,0.00,Wunderground v.1.15,2013-11-11 16:10:00,
2013-11-11 11:11:00,46.3,31.0,30.03,WSW,244,2.0,9.0,55,0.00,,,0.00,Wunderground v.1.15,2013-11-11 16:11:00,
2013-11-11 11:12:00,46.4,31.1,30.03,WSW,244,4.0,9.0,55,0.00,,,0.00,Wunderground v.1.15,2013-11-11 16:12:00,
2013-11-11 11:13:00,46.4,31.1,30.03,WSW,238,1.0,9.0,55,0.00,,,0.00,Wunderground v.1.15,2013-11-11 16:13:00,
2013-11-11 11:14:00,46.3,31.4,30.03,West,273,9.0,14.0,56,0.00,,,0.00,Wunderground v.1.15,2013-11-11 16:14:00,
2013-11-11 11:15:00,46.4,32.0,30.03,WSW,237,3.0,14.0,57,0.00,,,0.00,Wunderground v.1.15,2013-11-11 16:15:00,
2013-11-11 11:17:00,46.4,31.1,30.03,West,270,3.0,14.0,55,0.00,,,0.00,Wunderground v.1.15,2013-11-11 16:17:00,
2013-11-11 11:19:00,46.4,31.1,30.03,SSW,199,7.0,14.0,55,0.00,,,0.00,Wunderground v.1.15,2013-11-11 16:19:00,
2013-11-11 11:21:00,46.5,32.1,30.03,WSW,248,9.0,12.0,57,0.00,,,0.00,Wunderground v.1.15,2013-11-11 16:21:00,
2013-11-11 11:22:00,46.6,31.7,30.03,WNW,290,7.0,13.0,56,0.00,,,0.00,Wunderground v.1.15,2013-11-11 16:22:00,
2013-11-11 11:23:00,46.6,31.3,30.03,WSW,251,0.0,13.0,55,0.00,,,0.00,Wunderground v.1.15,2013-11-11 16:23:00,
2013-11-11 11:24:00,46.6,31.3,30.03,WSW,257,5.0,13.0,55,0.00,,,0.00,Wunderground v.1.15,2013-11-11 16:24:00,
2013-11-11 11:26:00,46.7,31.8,30.03,WSW,242,3.0,15.0,56,0.00,,,0.00,Wunderground v.1.15,2013-11-11 16:26:00,
2013-11-11 11:27:00,46.8,31.5,30.03,WNW,288,10.0,15.0,55,0.00,,,0.00,Wunderground v.1.15,2013-11-11 16:27:00,
2013-11-11 11:29:00,46.8,31.0,30.03,West,259,5.0,15.0,54,0.00,,,0.00,Wunderground v.1.15,2013-11-11 16:29:00,
2013-11-11 11:30:00,46.9,31.1,30.03,North,360,0.0,5.0,54,0.00,,,0.00,Wunderground v.1.15,2013-11-11 16:30:00,
2013-11-11 11:31:00,46.9,31.6,30.03,WNW,291,6.0,6.0,55,0.00,,,0.00,Wunderground v.1.15,2013-11-11 16:31:00,
2013-11-11 11:32:00,47.0,31.7,30.03,NW,319,3.0,11.0,55,0.00,,,0.00,Wunderground v.1.15,2013-11-11 16:32:00,
2013-11-11 11:33:00,47.0,31.7,30.03,West,277,1.0,11.0,55,0.00,,,0.00,Wunderground v.1.15,2013-11-11 16:33:00,
2013-11-11 11:34:00,47.0,31.7,30.03,West,263,3.0,11.0,55,0.00,,,0.00,Wunderground v.1.15,2013-11-11 16:34:00,
2013-11-11 11:35:00,47.0,31.7,30.03,West,275,2.0,11.0,55,0.00,,,0.00,Wunderground v.1.15,2013-11-11 16:35:00,
2013-11-11 11:36:00,47.1,32.2,30.03,WNW,302,8.0,11.0,56,0.00,,,0.00,Wunderground v.1.15,2013-11-11 16:36:00,
2013-11-11 11:37:00,47.2,32.3,30.03,WNW,301,3.0,11.0,56,0.00,,,0.00,Wunderground v.1.15,2013-11-11 16:37:00,
2013-11-11 11:38:00,47.2,32.3,30.03,NW,316,6.0,11.0,56,0.00,,,0.00,Wunderground v.1.15,2013-11-11 16:38:00,
2013-11-11 11:39:00,47.2,32.3,30.03,NW,304,5.0,11.0,56,0.00,,,0.00,Wunderground v.1.15,2013-11-11 16:39:00,
2013-11-11 11:40:00,47.3,32.4,30.03,West,260,2.0,5.0,56,0.00,,,0.00,Wunderground v.1.15,2013-11-11 16:40:00,
2013-11-11 11:42:00,47.4,32.9,30.03,NW,309,10.0,11.0,57,0.00,,,0.00,Wunderground v.1.15,2013-11-11 16:42:00,
2013-11-11 11:43:00,47.4,31.6,30.02,West,263,5.0,11.0,54,0.00,,,0.00,Wunderground v.1.15,2013-11-11 16:43:00,
2013-11-11 11:44:00,47.4,31.6,30.02,WSW,241,3.0,11.0,54,0.00,,,0.00,Wunderground v.1.15,2013-11-11 16:44:00,
2013-11-11 11:45:00,47.5,31.7,30.02,NW,307,5.0,11.0,54,0.00,,,0.00,Wunderground v.1.15,2013-11-11 16:45:00,
2013-11-11 11:47:00,47.6,32.2,30.02,WSW,253,11.0,12.0,55,0.00,,,0.00,Wunderground v.1.15,2013-11-11 16:47:00,
2013-11-11 11:48:00,47.6,31.8,30.02,WSW,252,1.0,12.0,54,0.00,,,0.00,Wunderground v.1.15,2013-11-11 16:48:00,
2013-11-11 11:49:00,47.6,31.8,30.02,WSW,254,1.0,12.0,54,0.00,,,0.00,Wunderground v.1.15,2013-11-11 16:49:00,
2013-11-11 11:50:00,47.7,31.9,30.02,WNW,283,4.0,4.0,54,0.00,,,0.00,Wunderground v.1.15,2013-11-11 16:50:00,
2013-11-11 11:51:00,47.7,32.3,30.02,West,278,12.0,12.0,55,0.00,,,0.00,Wunderground v.1.15,2013-11-11 16:51:00,
2013-11-11 11:52:00,47.7,32.8,30.02,West,279,7.0,12.0,56,0.00,,,0.00,Wunderground v.1.15,2013-11-11 16:52:00,
2013-11-11 11:53:00,47.8,32.4,30.01,West,260,6.0,12.0,55,0.00,,,0.00,Wunderground v.1.15,2013-11-11 16:53:00,
2013-11-11 11:54:00,47.8,31.9,30.01,West,273,2.0,12.0,54,0.00,,,0.00,Wunderground v.1.15,2013-11-11 16:54:00,
2013-11-11 11:55:00,47.8,31.5,30.01,West,277,3.0,12.0,53,0.00,,,0.00,Wunderground v.1.15,2013-11-11 16:55:00,
2013-11-11 11:56:00,47.9,32.0,30.01,NNW,331,1.0,12.0,54,0.00,,,0.00,Wunderground v.1.15,2013-11-11 16:56:00,
2013-11-11 11:57:00,47.9,32.0,30.02,NW,307,0.0,12.0,54,0.00,,,0.00,Wunderground v.1.15,2013-11-11 16:57:00,
2013-11-11 11:58:00,47.9,32.5,30.02,WNW,291,0.0,12.0,55,0.00,,,0.00,Wunderground v.1.15,2013-11-11 16:58:00,
2013-11-11 12:00:00,47.9,32.5,30.01,WSW,253,3.0,7.0,55,0.00,,,0.00,Wunderground v.1.15,2013-11-11 17:00:00,
2013-11-11 12:01:00,47.9,32.5,30.01,WSW,258,5.0,13.0,55,0.00,,,0.00,Wunderground v.1.15,2013-11-11 17:01:00,
2013-11-11 12:03:00,48.0,31.7,30.01,WSW,241,4.0,13.0,53,0.00,,,0.00,Wunderground v.1.15,2013-11-11 17:03:00,
2013-11-11 12:04:00,48.0,32.1,30.01,NNW,327,6.0,13.0,54,0.00,,,0.00,Wunderground v.1.15,2013-11-11 17:04:00,
2013-11-11 12:05:00,48.0,31.7,30.01,West,268,3.0,13.0,53,0.00,,,0.00,Wunderground v.1.15,2013-11-11 17:05:00,
2013-11-11 12:06:00,48.0,31.7,30.01,SW,234,3.0,13.0,53,0.00,,,0.00,Wunderground v.1.15,2013-11-11 17:06:00,
2013-11-11 12:08:00,48.1,32.2,30.01,WSW,245,3.0,13.0,54,0.00,,,0.00,Wunderground v.1.15,2013-11-11 17:08:00,
2013-11-11 12:09:00,48.1,32.2,30.01,WSW,254,3.0,13.0,54,0.00,,,0.00,Wunderground v.1.15,2013-11-11 17:09:00,
2013-11-11 12:10:00,48.1,31.8,30.01,East,95,2.0,7.0,53,0.00,,,0.00,Wunderground v.1.15,2013-11-11 17:10:00,
2013-11-11 12:11:00,48.2,32.3,30.01,West,261,7.0,10.0,54,0.00,,,0.00,Wunderground v.1.15,2013-11-11 17:11:00,
2013-11-11 12:14:00,48.2,31.9,30.01,West,269,5.0,13.0,53,0.00,,,0.00,Wunderground v.1.15,2013-11-11 17:14:00,
2013-11-11 12:15:00,48.2,30.9,30.01,NW,309,5.0,13.0,51,0.00,,,0.00,Wunderground v.1.15,2013-11-11 17:15:00,
2013-11-11 12:16:00,48.3,31.5,30.01,West,265,3.0,13.0,52,0.00,,,0.00,Wunderground v.1.15,2013-11-11 17:16:00,
2013-11-11 12:17:00,48.3,31.9,30.01,NNW,329,6.0,13.0,53,0.00,,,0.00,Wunderground v.1.15,2013-11-11 17:17:00,
2013-11-11 12:19:00,48.4,32.0,30.01,SW,223,3.0,13.0,53,0.00,,,0.00,Wunderground v.1.15,2013-11-11 17:19:00,
2013-11-11 12:20:00,48.4,32.0,30.01,WSW,250,7.0,8.0,53,0.00,,,0.00,Wunderground v.1.15,2013-11-11 17:20:00,
2013-11-11 12:22:00,48.5,31.7,30.01,SW,223,1.0,8.0,52,0.00,,,0.00,Wunderground v.1.15,2013-11-11 17:22:00,
2013-11-11 12:25:00,48.6,32.2,30.00,North,355,4.0,8.0,53,0.00,,,0.00,Wunderground v.1.15,2013-11-11 17:25:00,
2013-11-11 12:27:00,48.7,31.8,30.00,North,355,2.0,8.0,52,0.00,,,0.00,Wunderground v.1.15,2013-11-11 17:27:00,
2013-11-11 12:28:00,48.7,32.3,30.00,NW,315,11.0,11.0,53,0.00,,,0.00,Wunderground v.1.15,2013-11-11 17:28:00,
2013-11-11 12:30:00,48.8,31.9,30.00,North,350,1.0,3.0,52,0.00,,,0.00,Wunderground v.1.15,2013-11-11 17:30:00,
2013-11-11 12:31:00,48.8,32.4,30.00,WSW,250,4.0,5.0,53,0.00,,,0.00,Wunderground v.1.15,2013-11-11 17:31:00,
2013-11-11 12:32:00,48.9,32.0,30.00,West,272,7.0,8.0,52,0.00,,,0.00,Wunderground v.1.15,2013-11-11 17:32:00,
2013-11-11 12:33:00,48.9,31.5,30.00,West,259,3.0,8.0,51,0.00,,,0.00,Wunderground v.1.15,2013-11-11 17:33:00,
2013-11-11 12:35:00,49.0,31.6,30.00,West,277,11.0,11.0,51,0.00,,,0.00,Wunderground v.1.15,2013-11-11 17:35:00,
2013-11-11 12:36:00,49.0,32.1,29.99,West,275,2.0,11.0,52,0.00,,,0.00,Wunderground v.1.15,2013-11-11 17:36:00,
2013-11-11 12:37:00,49.1,32.2,29.99,SW,236,3.0,11.0,52,0.00,,,0.00,Wunderground v.1.15,2013-11-11 17:37:00,
2013-11-11 12:38:00,49.1,31.7,29.99,West,277,6.0,11.0,51,0.00,,,0.00,Wunderground v.1.15,2013-11-11 17:38:00,
2013-11-11 12:39:00,49.2,31.8,29.99,SW,232,4.0,11.0,51,0.00,,,0.00,Wunderground v.1.15,2013-11-11 17:39:00,
2013-11-11 12:40:00,49.2,32.3,29.99,WSW,249,2.0,4.0,52,0.00,,,0.00,Wunderground v.1.15,2013-11-11 17:40:00,
2013-11-11 12:41:00,49.2,31.8,29.99,WNW,291,9.0,9.0,51,0.00,,,0.00,Wunderground v.1.15,2013-11-11 17:41:00,
2013-11-11 12:42:00,49.2,31.8,29.99,WSW,253,3.0,9.0,51,0.00,,,0.00,Wunderground v.1.15,2013-11-11 17:42:00,
2013-11-11 12:44:00,49.3,31.9,29.99,WSW,249,2.0,9.0,51,0.00,,,0.00,Wunderground v.1.15,2013-11-11 17:44:00,
2013-11-11 12:45:00,49.3,31.4,29.99,WSW,253,2.0,9.0,50,0.00,,,0.00,Wunderground v.1.15,2013-11-11 17:45:00,
2013-11-11 12:47:00,49.3,31.4,29.99,West,259,4.0,9.0,50,0.00,,,0.00,Wunderground v.1.15,2013-11-11 17:47:00,
2013-11-11 12:48:00,49.3,31.4,29.99,NW,306,2.0,9.0,50,0.00,,,0.00,Wunderground v.1.15,2013-11-11 17:48:00,
2013-11-11 12:49:00,49.3,31.9,29.99,NW,315,6.0,13.0,51,0.00,,,0.00,Wunderground v.1.15,2013-11-11 17:49:00,
2013-11-11 12:50:00,49.3,31.9,29.99,West,281,10.0,11.0,51,0.00,,,0.00,Wunderground v.1.15,2013-11-11 17:50:00,
2013-11-11 12:52:00,49.4,32.0,29.99,West,269,8.0,12.0,51,0.00,,,0.00,Wunderground v.1.15,2013-11-11 17:52:00,
2013-11-11 12:53:00,49.4,32.0,29.99,WSW,250,8.0,12.0,51,0.00,,,0.00,Wunderground v.1.15,2013-11-11 17:53:00,
2013-11-11 12:54:00,49.5,31.6,29.99,WSW,240,6.0,12.0,50,0.00,,,0.00,Wunderground v.1.15,2013-11-11 17:54:00,
2013-11-11 12:55:00,49.4,31.5,29.99,WSW,252,7.0,12.0,50,0.00,,,0.00,Wunderground v.1.15,2013-11-11 17:55:00,
2013-11-11 12:57:00,49.6,31.7,29.99,West,261,4.0,12.0,50,0.00,,,0.00,Wunderground v.1.15,2013-11-11 17:57:00,
2013-11-11 12:58:00,49.6,31.7,29.99,SW,223,2.0,12.0,50,0.00,,,0.00,Wunderground v.1.15,2013-11-11 17:58:00,
2013-11-11 12:59:00,49.6,32.2,29.99,NNW,334,8.0,13.0,51,0.00,,,0.00,Wunderground v.1.15,2013-11-11 17:59:00,
2013-11-11 13:00:00,49.7,31.8,29.98,WSW,252,6.0,6.0,50,0.00,,,0.00,Wunderground v.1.15,2013-11-11 18:00:00,
2013-11-11 13:03:00,49.8,31.4,29.98,SW,227,1.0,13.0,49,0.00,,,0.00,Wunderground v.1.15,2013-11-11 18:03:00,
2013-11-11 13:04:00,49.9,32.0,29.98,NNW,334,0.0,13.0,50,0.00,,,0.00,Wunderground v.1.15,2013-11-11 18:04:00,
2013-11-11 13:05:00,49.9,32.5,29.98,West,264,10.0,13.0,51,0.00,,,0.00,Wunderground v.1.15,2013-11-11 18:05:00,
2013-11-11 13:08:00,50.1,31.7,29.98,WSW,242,4.0,13.0,49,0.00,,,0.00,Wunderground v.1.15,2013-11-11 18:08:00,
2013-11-11 13:09:00,50.2,31.2,29.98,WNW,287,4.0,13.0,48,0.00,,,0.00,Wunderground v.1.15,2013-11-11 18:09:00,
2013-11-11 13:10:00,50.2,31.8,29.98,North,360,1.0,7.0,49,0.00,,,0.00,Wunderground v.1.15,2013-11-11 18:10:00,
2013-11-11 13:11:00,50.3,31.8,29.98,West,280,8.0,8.0,49,0.00,,,0.00,Wunderground v.1.15,2013-11-11 18:11:00,
2013-11-11 13:13:00,50.4,31.9,29.97,WNW,302,3.0,12.0,49,0.00,,,0.00,Wunderground v.1.15,2013-11-11 18:13:00,
2013-11-11 13:14:00,50.5,31.5,29.97,West,259,7.0,12.0,48,0.00,,,0.00,Wunderground v.1.15,2013-11-11 18:14:00,
2013-11-11 13:15:00,50.5,31.0,29.97,WSW,242,4.0,12.0,47,0.00,,,0.00,Wunderground v.1.15,2013-11-11 18:15:00,
2013-11-11 13:20:00,50.3,31.8,29.97,WSW,248,4.0,-999.0,49,0.00,,,0.00,Wunderground v.1.15,2013-11-11 18:20:00,
2013-11-11 13:25:00,50.3,31.8,29.97,WSW,248,4.0,-999.0,49,0.00,,,0.00,Wunderground v.1.15,2013-11-11 18:25:00,
2013-11-11 13:30:00,50.3,31.8,29.97,WSW,248,4.0,-999.0,49,0.00,,,0.00,Wunderground v.1.15,2013-11-11 18:30:00,
2013-11-11 13:35:00,50.3,31.8,29.97,WSW,248,4.0,-999.0,49,0.00,,,0.00,Wunderground v.1.15,2013-11-11 18:35:00,
2013-11-11 13:40:00,50.3,31.8,29.97,WSW,248,4.0,-999.0,49,0.00,,,0.00,Wunderground v.1.15,2013-11-11 18:40:00,
2013-11-11 13:45:00,51.5,31.9,29.96,WSW,248,4.0,-999.0,47,0.00,,,0.00,Wunderground v.1.15,2013-11-11 18:45:00,
2013-11-11 13:50:00,51.5,31.9,29.96,WSW,248,4.0,-999.0,47,0.00,,,0.00,Wunderground v.1.15,2013-11-11 18:50:00,
2013-11-11 13:55:00,51.5,31.9,29.96,WSW,248,4.0,-999.0,47,0.00,,,0.00,Wunderground v.1.15,2013-11-11 18:55:00,
2013-11-11 14:00:00,51.5,31.9,29.96,WSW,248,4.0,-999.0,47,0.00,,,0.00,Wunderground v.1.15,2013-11-11 19:00:00,
2013-11-11 14:05:00,51.5,31.9,29.96,WSW,248,4.0,-999.0,47,0.00,,,0.00,Wunderground v.1.15,2013-11-11 19:05:00,
2013-11-11 14:10:00,51.5,31.9,29.96,WSW,248,4.0,-999.0,47,0.00,,,0.00,Wunderground v.1.15,2013-11-11 19:10:00,
2013-11-11 14:15:00,52.0,32.4,29.95,West,270,3.0,-999.0,47,0.00,,,0.00,Wunderground v.1.15,2013-11-11 19:15:00,
2013-11-11 14:20:00,52.0,32.4,29.95,West,270,3.0,-999.0,47,0.00,,,0.00,Wunderground v.1.15,2013-11-11 19:20:00,
2013-11-11 14:25:00,52.0,32.4,29.95,West,270,3.0,-999.0,47,0.00,,,0.00,Wunderground v.1.15,2013-11-11 19:25:00,
2013-11-11 14:30:00,52.0,32.4,29.95,West,270,3.0,-999.0,47,0.00,,,0.00,Wunderground v.1.15,2013-11-11 19:30:00,
2013-11-11 14:35:00,52.0,32.4,29.95,West,270,3.0,-999.0,47,0.00,,,0.00,Wunderground v.1.15,2013-11-11 19:35:00,
2013-11-11 14:40:00,52.0,32.4,29.95,West,270,3.0,-999.0,47,0.00,,,0.00,Wunderground v.1.15,2013-11-11 19:40:00,
2013-11-11 14:45:00,51.0,30.9,29.94,WSW,248,4.0,-999.0,46,0.00,,,0.00,Wunderground v.1.15,2013-11-11 19:45:00,
2013-11-11 14:50:00,51.0,30.9,29.94,WSW,248,4.0,-999.0,46,0.00,,,0.00,Wunderground v.1.15,2013-11-11 19:50:00,
2013-11-11 14:55:00,51.0,30.9,29.94,WSW,248,4.0,-999.0,46,0.00,,,0.00,Wunderground v.1.15,2013-11-11 19:55:00,
2013-11-11 15:00:00,51.0,30.9,29.94,WSW,248,4.0,-999.0,46,0.00,,,0.00,Wunderground v.1.15,2013-11-11 20:00:00,
2013-11-11 15:05:00,51.0,30.9,29.94,WSW,248,4.0,-999.0,46,0.00,,,0.00,Wunderground v.1.15,2013-11-11 20:05:00,
2013-11-11 15:10:00,51.0,30.9,29.94,WSW,248,4.0,-999.0,46,0.00,,,0.00,Wunderground v.1.15,2013-11-11 20:10:00,
2013-11-11 15:15:00,50.0,31.6,29.95,WSW,248,3.0,-999.0,49,0.00,,,0.00,Wunderground v.1.15,2013-11-11 20:15:00,
2013-11-11 15:20:00,50.0,31.6,29.95,WSW,248,3.0,-999.0,49,0.00,,,0.00,Wunderground v.1.15,2013-11-11 20:20:00,
2013-11-11 15:25:00,50.0,31.6,29.95,WSW,248,3.0,-999.0,49,0.00,,,0.00,Wunderground v.1.15,2013-11-11 20:25:00,
2013-11-11 15:38:00,49.4,31.0,29.95,WSW,253,2.0,4.0,49,0.00,,,0.00,Wunderground v.1.15,2013-11-11 20:38:00,
2013-11-11 15:43:00,49.4,31.0,29.95,West,267,3.0,5.0,49,0.00,,,0.00,Wunderground v.1.15,2013-11-11 20:43:00,
2013-11-11 15:48:00,49.4,31.0,29.95,WSW,249,3.0,7.0,49,0.00,,,0.00,Wunderground v.1.15,2013-11-11 20:48:00,
2013-11-11 15:49:00,49.4,31.0,29.95,SW,215,4.0,4.0,49,0.00,,,0.00,Wunderground v.1.15,2013-11-11 20:49:00,
2013-11-11 15:53:00,49.4,31.5,29.95,WNW,286,2.0,6.0,50,0.00,,,0.00,Wunderground v.1.15,2013-11-11 20:53:00,
2013-11-11 15:54:00,49.4,31.5,29.95,SW,231,2.0,6.0,50,0.00,,,0.00,Wunderground v.1.15,2013-11-11 20:54:00,
2013-11-11 15:59:00,49.4,31.5,29.95,WSW,252,1.0,3.0,50,0.00,,,0.00,Wunderground v.1.15,2013-11-11 20:59:00,
2013-11-11 16:00:00,49.4,31.5,29.95,WSW,254,6.0,6.0,50,0.00,,,0.00,Wunderground v.1.15,2013-11-11 21:00:00,
2013-11-11 16:04:00,49.4,31.5,29.95,West,271,1.0,6.0,50,0.00,,,0.00,Wunderground v.1.15,2013-11-11 21:04:00,
2013-11-11 16:05:00,49.4,31.5,29.95,West,271,2.0,6.0,50,0.00,,,0.00,Wunderground v.1.15,2013-11-11 21:05:00,
2013-11-11 16:09:00,49.4,31.5,29.94,SW,214,5.0,9.0,50,0.00,,,0.00,Wunderground v.1.15,2013-11-11 21:09:00,
2013-11-11 16:10:00,49.3,31.4,29.94,South,182,5.0,7.0,50,0.00,,,0.00,Wunderground v.1.15,2013-11-11 21:10:00,
2013-11-11 16:14:00,49.3,31.9,29.94,SW,223,1.0,10.0,51,0.00,,,0.00,Wunderground v.1.15,2013-11-11 21:14:00,
2013-11-11 16:15:00,49.4,32.0,29.94,SW,217,0.0,10.0,51,0.00,,,0.00,Wunderground v.1.15,2013-11-11 21:15:00,
2013-11-11 16:16:00,49.3,31.9,29.94,SW,234,4.0,10.0,51,0.00,,,0.00,Wunderground v.1.15,2013-11-11 21:16:00,
2013-11-11 16:19:00,49.3,31.4,29.94,South,185,3.0,10.0,50,0.00,,,0.00,Wunderground v.1.15,2013-11-11 21:19:00,
2013-11-11 16:20:00,49.3,31.4,29.94,West,273,11.0,11.0,50,0.00,,,0.00,Wunderground v.1.15,2013-11-11 21:20:00,
2013-11-11 16:21:00,49.3,31.9,29.94,SW,215,5.0,11.0,51,0.00,,,0.00,Wunderground v.1.15,2013-11-11 21:21:00,
2013-11-11 16:24:00,49.2,31.8,29.94,West,272,5.0,11.0,51,0.00,,,0.00,Wunderground v.1.15,2013-11-11 21:24:00,
2013-11-11 16:25:00,49.3,31.9,29.93,SSW,211,1.0,11.0,51,0.00,,,0.00,Wunderground v.1.15,2013-11-11 21:25:00,
2013-11-11 16:27:00,49.2,31.8,29.93,SSW,202,6.0,11.0,51,0.00,,,0.00,Wunderground v.1.15,2013-11-11 21:27:00,
2013-11-11 16:30:00,49.2,31.8,29.93,West,271,4.0,4.0,51,0.00,,,0.00,Wunderground v.1.15,2013-11-11 21:30:00,
2013-11-11 16:32:00,49.2,32.3,29.93,WNW,294,2.0,5.0,52,0.00,,,0.00,Wunderground v.1.15,2013-11-11 21:32:00,
2013-11-11 16:35:00,49.2,32.3,29.93,West,264,3.0,11.0,52,0.00,,,0.00,Wunderground v.1.15,2013-11-11 21:35:00,
2013-11-11 16:36:00,49.2,32.3,29.93,SW,223,4.0,11.0,52,0.00,,,0.00,Wunderground v.1.15,2013-11-11 21:36:00,
2013-11-11 16:38:00,49.2,32.3,29.94,WSW,257,0.0,11.0,52,0.00,,,0.00,Wunderground v.1.15,2013-11-11 21:38:00,
2013-11-11 16:40:00,49.2,32.3,29.94,South,191,7.0,7.0,52,0.00,,,0.00,Wunderground v.1.15,2013-11-11 21:40:00,
2013-11-11 16:41:00,49.2,32.3,29.94,WSW,257,4.0,9.0,52,0.00,,,0.00,Wunderground v.1.15,2013-11-11 21:41:00,
2013-11-11 16:44:00,49.2,32.8,29.94,SW,230,3.0,9.0,53,0.00,,,0.00,Wunderground v.1.15,2013-11-11 21:44:00,
2013-11-11 16:45:00,49.2,32.8,29.93,SW,218,1.0,9.0,53,0.00,,,0.00,Wunderground v.1.15,2013-11-11 21:45:00,
2013-11-11 16:46:00,49.2,32.8,29.93,SW,219,0.0,9.0,53,0.00,,,0.00,Wunderground v.1.15,2013-11-11 21:46:00,
2013-11-11 16:49:00,49.1,32.2,29.94,SSW,209,0.0,9.0,52,0.00,,,0.00,Wunderground v.1.15,2013-11-11 21:49:00,
2013-11-11 16:50:00,49.1,32.7,29.94,WSW,237,2.0,2.0,53,0.00,,,0.00,Wunderground v.1.15,2013-11-11 21:50:00,
2013-11-11 16:51:00,49.1,32.2,29.94,WSW,238,1.0,2.0,52,0.00,,,0.00,Wunderground v.1.15,2013-11-11 21:51:00,
2013-11-11 16:52:00,49.1,32.7,29.94,West,260,0.0,4.0,53,0.00,,,0.00,Wunderground v.1.15,2013-11-11 21:52:00,
2013-11-11 16:54:00,49.1,32.7,29.94,WNW,284,0.0,7.0,53,0.00,,,0.00,Wunderground v.1.15,2013-11-11 21:54:00,
2013-11-11 16:56:00,49.0,32.6,29.94,WSW,238,0.0,7.0,53,0.00,,,0.00,Wunderground v.1.15,2013-11-11 21:56:00,
2013-11-11 16:57:00,49.0,32.6,29.94,West,264,0.0,7.0,53,0.00,,,0.00,Wunderground v.1.15,2013-11-11 21:57:00,
2013-11-11 16:59:00,49.0,32.6,29.94,West,277,1.0,7.0,53,0.00,,,0.00,Wunderground v.1.15,2013-11-11 21:59:00,
2013-11-11 17:01:00,49.0,32.6,29.94,WSW,240,0.0,5.0,53,0.00,,,0.00,Wunderground v.1.15,2013-11-11 22:01:00,
2013-11-11 17:02:00,49.0,32.6,29.94,WSW,240,1.0,5.0,53,0.00,,,0.00,Wunderground v.1.15,2013-11-11 22:02:00,
2013-11-11 17:03:00,48.9,32.5,29.94,WSW,240,1.0,5.0,53,0.00,,,0.00,Wunderground v.1.15,2013-11-11 22:03:00,
2013-11-11 17:05:00,48.9,32.5,29.95,WSW,240,1.0,5.0,53,0.00,,,0.00,Wunderground v.1.15,2013-11-11 22:05:00,
2013-11-11 17:06:00,48.9,32.5,29.95,WNW,289,2.0,5.0,53,0.00,,,0.00,Wunderground v.1.15,2013-11-11 22:06:00,
2013-11-11 17:07:00,48.9,32.5,29.95,West,274,1.0,5.0,53,0.00,,,0.00,Wunderground v.1.15,2013-11-11 22:07:00,
2013-11-11 17:08:00,48.8,32.4,29.95,West,273,0.0,5.0,53,0.00,,,0.00,Wunderground v.1.15,2013-11-11 22:08:00,
2013-11-11 17:10:00,48.8,32.4,29.95,West,272,4.0,4.0,53,0.00,,,0.00,Wunderground v.1.15,2013-11-11 22:10:00,
2013-11-11 17:11:00,48.8,32.4,29.95,West,261,3.0,6.0,53,0.00,,,0.00,Wunderground v.1.15,2013-11-11 22:11:00,
2013-11-11 17:12:00,48.8,32.4,29.95,WSW,252,2.0,6.0,53,0.00,,,0.00,Wunderground v.1.15,2013-11-11 22:12:00,
2013-11-11 17:13:00,48.8,32.4,29.95,West,260,0.0,6.0,53,0.00,,,0.00,Wunderground v.1.15,2013-11-11 22:13:00,
2013-11-11 17:15:00,48.7,32.3,29.95,West,264,0.0,6.0,53,0.00,,,0.00,Wunderground v.1.15,2013-11-11 22:15:00,
2013-11-11 17:16:00,48.7,32.3,29.95,West,264,0.0,6.0,53,0.00,,,0.00,Wunderground v.1.15,2013-11-11 22:16:00,
2013-11-11 17:17:00,48.6,32.2,29.95,West,264,0.0,6.0,53,0.00,,,0.00,Wunderground v.1.15,2013-11-11 22:17:00,
2013-11-11 17:18:00,48.6,32.2,29.95,West,264,0.0,6.0,53,0.00,,,0.00,Wunderground v.1.15,2013-11-11 22:18:00,
2013-11-11 17:19:00,48.6,32.2,29.95,West,264,0.0,6.0,53,0.00,,,0.00,Wunderground v.1.15,2013-11-11 22:19:00,
2013-11-11 17:20:00,48.6,32.2,29.95,West,264,0.0,1.0,53,0.00,,,0.00,Wunderground v.1.15,2013-11-11 22:20:00,
2013-11-11 17:21:00,48.5,32.1,29.95,West,265,0.0,1.0,53,0.00,,,0.00,Wunderground v.1.15,2013-11-11 22:21:00,
2013-11-11 17:22:00,48.5,32.1,29.94,West,264,0.0,1.0,53,0.00,,,0.00,Wunderground v.1.15,2013-11-11 22:22:00,
2013-11-11 17:23:00,48.5,32.1,29.94,West,264,1.0,1.0,53,0.00,,,0.00,Wunderground v.1.15,2013-11-11 22:23:00,
2013-11-11 17:24:00,48.4,32.0,29.94,West,264,0.0,1.0,53,0.00,,,0.00,Wunderground v.1.15,2013-11-11 22:24:00,
2013-11-11 17:25:00,48.4,32.0,29.94,West,264,0.0,1.0,53,0.00,,,0.00,Wunderground v.1.15,2013-11-11 22:25:00,
2013-11-11 17:26:00,48.3,31.9,29.94,West,264,0.0,1.0,53,0.00,,,0.00,Wunderground v.1.15,2013-11-11 22:26:00,
2013-11-11 17:27:00,48.3,31.9,29.94,West,264,0.0,1.0,53,0.00,,,0.00,Wunderground v.1.15,2013-11-11 22:27:00,
2013-11-11 17:28:00,48.3,31.9,29.94,West,264,0.0,1.0,53,0.00,,,0.00,Wunderground v.1.15,2013-11-11 22:28:00,
2013-11-11 17:29:00,48.2,31.9,29.94,West,264,0.0,1.0,53,0.00,,,0.00,Wunderground v.1.15,2013-11-11 22:29:00,
2013-11-11 17:30:00,48.1,31.8,29.94,West,264,0.0,0.0,53,0.00,,,0.00,Wunderground v.1.15,2013-11-11 22:30:00,
2013-11-11 17:31:00,48.1,31.8,29.94,West,264,0.0,0.0,53,0.00,,,0.00,Wunderground v.1.15,2013-11-11 22:31:00,
2013-11-11 17:33:00,48.0,31.7,29.94,West,264,0.0,0.0,53,0.00,,,0.00,Wunderground v.1.15,2013-11-11 22:33:00,
2013-11-11 17:34:00,47.9,31.6,29.94,West,264,0.0,0.0,53,0.00,,,0.00,Wunderground v.1.15,2013-11-11 22:34:00,
2013-11-11 17:35:00,47.9,31.6,29.94,West,264,0.0,0.0,53,0.00,,,0.00,Wunderground v.1.15,2013-11-11 22:35:00,
2013-11-11 17:36:00,47.8,31.5,29.94,West,264,0.0,0.0,53,0.00,,,0.00,Wunderground v.1.15,2013-11-11 22:36:00,
2013-11-11 17:37:00,47.8,31.5,29.94,West,264,0.0,0.0,53,0.00,,,0.00,Wunderground v.1.15,2013-11-11 22:37:00,
2013-11-11 17:38:00,47.7,31.4,29.94,West,264,0.0,1.0,53,0.00,,,0.00,Wunderground v.1.15,2013-11-11 22:38:00,
2013-11-11 17:39:00,47.7,31.4,29.94,West,264,0.0,1.0,53,0.00,,,0.00,Wunderground v.1.15,2013-11-11 22:39:00,
2013-11-11 17:40:00,47.6,31.3,29.94,West,264,0.0,0.0,53,0.00,,,0.00,Wunderground v.1.15,2013-11-11 22:40:00,
2013-11-11 17:41:00,47.6,31.8,29.94,West,264,0.0,0.0,54,0.00,,,0.00,Wunderground v.1.15,2013-11-11 22:41:00,
2013-11-11 17:42:00,47.6,31.8,29.94,West,264,0.0,0.0,54,0.00,,,0.00,Wunderground v.1.15,2013-11-11 22:42:00,
2013-11-11 17:43:00,47.5,31.7,29.94,West,264,0.0,0.0,54,0.00,,,0.00,Wunderground v.1.15,2013-11-11 22:43:00,
2013-11-11 17:44:00,47.4,31.6,29.94,West,264,0.0,0.0,54,0.00,,,0.00,Wunderground v.1.15,2013-11-11 22:44:00,
2013-11-11 17:45:00,47.4,31.6,29.94,West,264,0.0,0.0,54,0.00,,,0.00,Wunderground v.1.15,2013-11-11 22:45:00,
2013-11-11 17:47:00,47.4,31.6,29.94,West,263,2.0,3.0,54,0.00,,,0.00,Wunderground v.1.15,2013-11-11 22:47:00,
2013-11-11 17:49:00,47.2,31.8,29.94,SW,225,2.0,4.0,55,0.00,,,0.00,Wunderground v.1.15,2013-11-11 22:49:00,
2013-11-11 17:51:00,47.2,31.8,29.94,SW,225,1.0,2.0,55,0.00,,,0.00,Wunderground v.1.15,2013-11-11 22:51:00,
2013-11-11 17:52:00,47.1,31.7,29.94,SSW,205,2.0,3.0,55,0.00,,,0.00,Wunderground v.1.15,2013-11-11 22:52:00,
2013-11-11 17:54:00,47.0,31.7,29.93,SSW,200,3.0,3.0,55,0.00,,,0.00,Wunderground v.1.15,2013-11-11 22:54:00,
2013-11-11 17:56:00,47.0,32.1,29.93,SSW,200,1.0,3.0,56,0.00,,,0.00,Wunderground v.1.15,2013-11-11 22:56:00,
2013-11-11 17:57:00,47.0,32.1,29.93,SSW,200,0.0,3.0,56,0.00,,,0.00,Wunderground v.1.15,2013-11-11 22:57:00,
2013-11-11 17:58:00,46.9,32.0,29.93,SSW,200,1.0,3.0,56,0.00,,,0.00,Wunderground v.1.15,2013-11-11 22:58:00,
2013-11-11 17:59:00,46.9,32.0,29.93,SSW,200,0.0,3.0,56,0.00,,,0.00,Wunderground v.1.15,2013-11-11 22:59:00,
2013-11-11 18:02:00,46.8,32.4,29.93,SSW,200,0.0,1.0,57,0.00,,,0.00,Wunderground v.1.15,2013-11-11 23:02:00,
2013-11-11 18:03:00,46.8,32.4,29.93,SSW,200,0.0,1.0,57,0.00,,,0.00,Wunderground v.1.15,2013-11-11 23:03:00,
2013-11-11 18:05:00,46.8,31.9,29.93,SSW,201,0.0,1.0,56,0.00,,,0.00,Wunderground v.1.15,2013-11-11 23:05:00,
2013-11-11 18:07:00,46.7,31.8,29.93,SSW,200,0.0,2.0,56,0.00,,,0.00,Wunderground v.1.15,2013-11-11 23:07:00,
2013-11-11 18:08:00,46.7,31.8,29.93,SSW,200,0.0,2.0,56,0.00,,,0.00,Wunderground v.1.15,2013-11-11 23:08:00,
2013-11-11 18:10:00,46.7,32.3,29.93,SSW,200,1.0,1.0,57,0.00,,,0.00,Wunderground v.1.15,2013-11-11 23:10:00,
2013-11-11 18:12:00,46.7,32.3,29.93,SSW,200,3.0,4.0,57,0.00,,,0.00,Wunderground v.1.15,2013-11-11 23:12:00,
2013-11-11 18:13:00,46.7,32.3,29.93,SSW,200,0.0,4.0,57,0.00,,,0.00,Wunderground v.1.15,2013-11-11 23:13:00,
2013-11-11 18:15:00,46.6,32.2,29.93,SW,225,2.0,4.0,57,0.00,,,0.00,Wunderground v.1.15,2013-11-11 23:15:00,
2013-11-11 18:18:00,46.6,32.2,29.93,SW,217,2.0,4.0,57,0.00,,,0.00,Wunderground v.1.15,2013-11-11 23:18:00,
2013-11-11 18:20:00,46.6,32.6,29.93,SW,219,0.0,2.0,58,0.00,,,0.00,Wunderground v.1.15,2013-11-11 23:20:00,
2013-11-11 18:22:00,46.6,32.6,29.93,SSW,211,0.0,5.0,58,0.00,,,0.00,Wunderground v.1.15,2013-11-11 23:22:00,
2013-11-11 18:23:00,46.6,32.6,29.93,SSW,211,0.0,5.0,58,0.00,,,0.00,Wunderground v.1.15,2013-11-11 23:23:00,
2013-11-11 18:24:00,46.6,32.6,29.93,SW,223,1.0,5.0,58,0.00,,,0.00,Wunderground v.1.15,2013-11-11 23:24:00,
2013-11-11 18:25:00,46.6,32.6,29.93,SW,224,0.0,5.0,58,0.00,,,0.00,Wunderground v.1.15,2013-11-11 23:25:00,
2013-11-11 18:26:00,46.6,32.6,29.93,SW,224,0.0,5.0,58,0.00,,,0.00,Wunderground v.1.15,2013-11-11 23:26:00,
2013-11-11 18:28:00,46.6,32.6,29.93,SSW,199,6.0,6.0,58,0.00,,,0.00,Wunderground v.1.15,2013-11-11 23:28:00,
2013-11-11 18:29:00,46.6,32.2,29.94,SW,215,1.0,6.0,57,0.00,,,0.00,Wunderground v.1.15,2013-11-11 23:29:00,
2013-11-11 18:30:00,46.6,32.6,29.93,SW,217,1.0,2.0,58,0.00,,,0.00,Wunderground v.1.15,2013-11-11 23:30:00,
2013-11-11 18:31:00,46.7,32.3,29.93,SW,229,2.0,6.0,57,0.00,,,0.00,Wunderground v.1.15,2013-11-11 23:31:00,
2013-11-11 18:33:00,46.7,32.7,29.93,WSW,240,0.0,6.0,58,0.00,,,0.00,Wunderground v.1.15,2013-11-11 23:33:00,
2013-11-11 18:34:00,46.7,32.7,29.93,SW,223,2.0,6.0,58,0.00,,,0.00,Wunderground v.1.15,2013-11-11 23:34:00,
2013-11-11 18:35:00,46.7,32.7,29.94,SW,223,1.0,6.0,58,0.00,,,0.00,Wunderground v.1.15,2013-11-11 23:35:00,
2013-11-11 18:36:00,46.7,32.7,29.94,SW,223,0.0,6.0,58,0.00,,,0.00,Wunderground v.1.15,2013-11-11 23:36:00,
2013-11-11 18:37:00,46.7,32.7,29.94,SW,223,0.0,6.0,58,0.00,,,0.00,Wunderground v.1.15,2013-11-11 23:37:00,
2013-11-11 18:38:00,46.7,32.7,29.94,SW,223,0.0,6.0,58,0.00,,,0.00,Wunderground v.1.15,2013-11-11 23:38:00,
2013-11-11 18:39:00,46.7,32.7,29.94,SSW,196,2.0,6.0,58,0.00,,,0.00,Wunderground v.1.15,2013-11-11 23:39:00,
2013-11-11 18:40:00,46.7,32.7,29.94,SSW,205,2.0,3.0,58,0.00,,,0.00,Wunderground v.1.15,2013-11-11 23:40:00,
2013-11-11 18:41:00,46.8,32.8,29.94,SSW,200,2.0,3.0,58,0.00,,,0.00,Wunderground v.1.15,2013-11-11 23:41:00,
2013-11-11 18:42:00,46.8,32.8,29.94,SSW,204,3.0,7.0,58,0.00,,,0.00,Wunderground v.1.15,2013-11-11 23:42:00,
2013-11-11 18:43:00,46.8,32.8,29.94,SW,215,3.0,7.0,58,0.00,,,0.00,Wunderground v.1.15,2013-11-11 23:43:00,
2013-11-11 18:44:00,46.8,32.8,29.94,WSW,256,3.0,7.0,58,0.00,,,0.00,Wunderground v.1.15,2013-11-11 23:44:00,
2013-11-11 18:46:00,46.8,32.8,29.94,South,172,9.0,9.0,58,0.00,,,0.00,Wunderground v.1.15,2013-11-11 23:46:00,
2013-11-11 18:48:00,46.9,32.9,29.93,WSW,246,3.0,9.0,58,0.00,,,0.00,Wunderground v.1.15,2013-11-11 23:48:00,
2013-11-11 18:49:00,46.9,32.9,29.93,WSW,257,9.0,9.0,58,0.00,,,0.00,Wunderground v.1.15,2013-11-11 23:49:00,
2013-11-11 18:51:00,47.0,33.0,29.93,SW,233,0.0,5.0,58,0.00,,,0.00,Wunderground v.1.15,2013-11-11 23:51:00,
2013-11-11 18:53:00,47.0,33.0,29.93,SW,232,5.0,5.0,58,0.00,,,0.00,Wunderground v.1.15,2013-11-11 23:53:00,
2013-11-11 18:55:00,47.0,33.0,29.93,SW,227,6.0,7.0,58,0.00,,,0.00,Wunderground v.1.15,2013-11-11 23:55:00,
2013-11-11 18:56:00,47.1,33.1,29.93,WSW,240,3.0,7.0,58,0.00,,,0.00,Wunderground v.1.15,2013-11-11 23:56:00,
2013-11-11 18:57:00,47.1,33.1,29.93,WSW,239,2.0,7.0,58,0.00,,,0.00,Wunderground v.1.15,2013-11-11 23:57:00,
2013-11-11 18:58:00,47.1,33.1,29.93,SSE,150,1.0,7.0,58,0.00,,,0.00,Wunderground v.1.15,2013-11-11 23:58:00,
2013-11-11 19:00:00,47.2,33.2,29.93,SW,228,3.0,5.0,58,0.00,,,0.00,Wunderground v.1.15,2013-11-12 00:00:00,
2013-11-11 19:03:00,47.2,33.2,29.93,NW,304,3.0,7.0,58,0.00,,,0.00,Wunderground v.1.15,2013-11-12 00:03:00,
2013-11-11 19:04:00,47.2,33.6,29.93,West,259,2.0,7.0,59,0.00,,,0.00,Wunderground v.1.15,2013-11-12 00:04:00,
2013-11-11 19:05:00,47.3,33.7,29.93,SW,227,0.0,7.0,59,0.00,,,0.00,Wunderground v.1.15,2013-11-12 00:05:00,
2013-11-11 19:08:00,47.3,33.7,29.92,SSW,205,2.0,9.0,59,0.00,,,0.00,Wunderground v.1.15,2013-11-12 00:08:00,
2013-11-11 19:09:00,47.3,33.7,29.92,SSW,205,5.0,9.0,59,0.00,,,0.00,Wunderground v.1.15,2013-11-12 00:09:00,
2013-11-11 19:10:00,47.3,33.7,29.92,WSW,244,3.0,3.0,59,0.00,,,0.00,Wunderground v.1.15,2013-11-12 00:10:00,
2013-11-11 19:12:00,47.4,33.8,29.92,West,271,4.0,7.0,59,0.00,,,0.00,Wunderground v.1.15,2013-11-12 00:12:00,
2013-11-11 19:14:00,47.4,33.8,29.93,SSW,200,0.0,7.0,59,0.00,,,0.00,Wunderground v.1.15,2013-11-12 00:14:00,
2013-11-11 19:15:00,47.4,33.8,29.93,SW,230,1.0,9.0,59,0.00,,,0.00,Wunderground v.1.15,2013-11-12 00:15:00,
2013-11-11 19:17:00,47.5,33.9,29.93,WSW,246,9.0,9.0,59,0.00,,,0.00,Wunderground v.1.15,2013-11-12 00:17:00,
2013-11-11 19:19:00,47.5,33.9,29.92,South,190,7.0,9.0,59,0.00,,,0.00,Wunderground v.1.15,2013-11-12 00:19:00,
2013-11-11 19:20:00,47.5,33.9,29.92,WSW,238,6.0,6.0,59,0.00,,,0.00,Wunderground v.1.15,2013-11-12 00:20:00,
2013-11-11 19:21:00,47.5,33.9,29.92,SW,230,5.0,9.0,59,0.00,,,0.00,Wunderground v.1.15,2013-11-12 00:21:00,
2013-11-11 19:22:00,47.5,33.9,29.92,SSW,198,3.0,10.0,59,0.00,,,0.00,Wunderground v.1.15,2013-11-12 00:22:00,
2013-11-11 19:24:00,47.5,33.9,29.92,SW,217,0.0,10.0,59,0.00,,,0.00,Wunderground v.1.15,2013-11-12 00:24:00,
2013-11-11 19:25:00,47.5,33.9,29.92,West,280,2.0,10.0,59,0.00,,,0.00,Wunderground v.1.15,2013-11-12 00:25:00,
2013-11-11 19:26:00,47.5,33.9,29.92,WSW,254,2.0,10.0,59,0.00,,,0.00,Wunderground v.1.15,2013-11-12 00:26:00,
2013-11-11 19:27:00,47.6,34.0,29.92,SW,221,1.0,10.0,59,0.00,,,0.00,Wunderground v.1.15,2013-11-12 00:27:00,
2013-11-11 19:29:00,47.6,34.0,29.92,West,281,0.0,10.0,59,0.00,,,0.00,Wunderground v.1.15,2013-11-12 00:29:00,
2013-11-11 19:30:00,47.6,34.0,29.92,West,272,2.0,3.0,59,0.00,,,0.00,Wunderground v.1.15,2013-11-12 00:30:00,
2013-11-11 19:31:00,47.6,34.0,29.92,SSW,207,2.0,6.0,59,0.00,,,0.00,Wunderground v.1.15,2013-11-12 00:31:00,
2013-11-11 19:32:00,47.6,34.0,29.92,SSW,195,3.0,6.0,59,0.00,,,0.00,Wunderground v.1.15,2013-11-12 00:32:00,
2013-11-11 19:34:00,47.6,34.0,29.92,WSW,250,1.0,12.0,59,0.00,,,0.00,Wunderground v.1.15,2013-11-12 00:34:00,
2013-11-11 19:35:00,47.6,34.0,29.92,West,260,2.0,12.0,59,0.00,,,0.00,Wunderground v.1.15,2013-11-12 00:35:00,
2013-11-11 19:36:00,47.6,34.0,29.92,SSW,197,2.0,12.0,59,0.00,,,0.00,Wunderground v.1.15,2013-11-12 00:36:00,
2013-11-11 19:37:00,47.6,34.0,29.92,SW,232,2.0,12.0,59,0.00,,,0.00,Wunderground v.1.15,2013-11-12 00:37:00,
2013-11-11 19:40:00,47.6,34.0,29.92,SSW,196,4.0,4.0,59,0.00,,,0.00,Wunderground v.1.15,2013-11-12 00:40:00,
2013-11-11 19:41:00,47.6,34.0,29.92,West,273,1.0,6.0,59,0.00,,,0.00,Wunderground v.1.15,2013-11-12 00:41:00,
2013-11-11 19:42:00,47.6,34.0,29.92,WSW,242,1.0,6.0,59,0.00,,,0.00,Wunderground v.1.15,2013-11-12 00:42:00,
2013-11-11 19:43:00,47.6,34.0,29.92,WSW,242,0.0,6.0,59,0.00,,,0.00,Wunderground v.1.15,2013-11-12 00:43:00,
2013-11-11 19:46:00,47.6,34.4,29.92,SW,223,1.0,7.0,60,0.00,,,0.00,Wunderground v.1.15,2013-11-12 00:46:00,
2013-11-11 19:47:00,47.6,34.0,29.92,SW,223,0.0,7.0,59,0.00,,,0.00,Wunderground v.1.15,2013-11-12 00:47:00,
2013-11-11 19:48:00,47.6,34.0,29.92,SW,232,2.0,7.0,59,0.00,,,0.00,Wunderground v.1.15,2013-11-12 00:48:00,
2013-11-11 19:51:00,47.6,34.4,29.92,South,176,2.0,6.0,60,0.00,,,0.00,Wunderground v.1.15,2013-11-12 00:51:00,
2013-11-11 19:52:00,47.6,34.4,29.92,SW,218,7.0,7.0,60,0.00,,,0.00,Wunderground v.1.15,2013-11-12 00:52:00,
2013-11-11 19:53:00,47.5,34.3,29.92,WSW,254,5.0,7.0,60,0.00,,,0.00,Wunderground v.1.15,2013-11-12 00:53:00,
2013-11-11 19:56:00,47.5,33.9,29.92,SW,219,1.0,7.0,59,0.00,,,0.00,Wunderground v.1.15,2013-11-12 00:56:00,
2013-11-11 19:57:00,47.5,33.9,29.92,West,272,6.0,7.0,59,0.00,,,0.00,Wunderground v.1.15,2013-11-12 00:57:00,
2013-11-11 19:58:00,47.5,33.9,29.92,WSW,238,7.0,9.0,59,0.00,,,0.00,Wunderground v.1.15,2013-11-12 00:58:00,
2013-11-11 20:02:00,47.5,33.9,29.92,West,269,4.0,7.0,59,0.00,,,0.00,Wunderground v.1.15,2013-11-12 01:02:00,
2013-11-11 20:03:00,47.5,33.9,29.92,WSW,242,6.0,7.0,59,0.00,,,0.00,Wunderground v.1.15,2013-11-12 01:03:00,
2013-11-11 20:07:00,47.5,33.9,29.92,South,173,1.0,8.0,59,0.00,,,0.00,Wunderground v.1.15,2013-11-12 01:07:00,
2013-11-11 20:08:00,47.5,34.3,29.92,SW,229,1.0,8.0,60,0.00,,,0.00,Wunderground v.1.15,2013-11-12 01:08:00,
2013-11-11 20:09:00,47.5,33.9,29.92,SSW,208,4.0,8.0,59,0.00,,,0.00,Wunderground v.1.15,2013-11-12 01:09:00,
2013-11-11 20:12:00,47.5,33.9,29.92,SW,227,5.0,8.0,59,0.00,,,0.00,Wunderground v.1.15,2013-11-12 01:12:00,
2013-11-11 20:13:00,47.5,33.9,29.92,WSW,244,6.0,9.0,59,0.00,,,0.00,Wunderground v.1.15,2013-11-12 01:13:00,
2013-11-11 20:14:00,47.5,33.9,29.92,West,263,3.0,9.0,59,0.00,,,0.00,Wunderground v.1.15,2013-11-12 01:14:00,
2013-11-11 20:17:00,47.4,33.8,29.92,WSW,244,1.0,9.0,59,0.00,,,0.00,Wunderground v.1.15,2013-11-12 01:17:00,
2013-11-11 20:18:00,47.4,34.2,29.92,South,191,5.0,9.0,60,0.00,,,0.00,Wunderground v.1.15,2013-11-12 01:18:00,
2013-11-11 20:19:00,47.4,34.2,29.92,SSW,207,2.0,9.0,60,0.00,,,0.00,Wunderground v.1.15,2013-11-12 01:19:00,
2013-11-11 20:22:00,47.4,33.8,29.92,WSW,246,3.0,6.0,59,0.00,,,0.00,Wunderground v.1.15,2013-11-12 01:22:00,
2013-11-11 20:24:00,47.4,33.8,29.92,SW,220,3.0,7.0,59,0.00,,,0.00,Wunderground v.1.15,2013-11-12 01:24:00,
2013-11-11 20:27:00,47.4,34.2,29.91,WSW,240,5.0,7.0,60,0.00,,,0.00,Wunderground v.1.15,2013-11-12 01:27:00,
2013-11-11 20:29:00,47.4,34.2,29.91,SSW,213,6.0,7.0,60,0.00,,,0.00,Wunderground v.1.15,2013-11-12 01:29:00,
2013-11-11 20:30:00,47.4,34.2,29.91,WSW,241,2.0,3.0,60,0.00,,,0.00,Wunderground v.1.15,2013-11-12 01:30:00,
2013-11-11 20:32:00,47.4,34.2,29.91,West,259,1.0,7.0,60,0.00,,,0.00,Wunderground v.1.15,2013-11-12 01:32:00,
2013-11-11 20:33:00,47.4,34.2,29.91,WSW,249,2.0,7.0,60,0.00,,,0.00,Wunderground v.1.15,2013-11-12 01:33:00,
2013-11-11 20:34:00,47.4,34.2,29.91,SW,222,3.0,9.0,60,0.00,,,0.00,Wunderground v.1.15,2013-11-12 01:34:00,
2013-11-11 20:35:00,47.4,34.2,29.91,SW,232,3.0,9.0,60,0.00,,,0.00,Wunderground v.1.15,2013-11-12 01:35:00,
2013-11-11 20:37:00,47.4,34.2,29.91,SW,222,0.0,9.0,60,0.00,,,0.00,Wunderground v.1.15,2013-11-12 01:37:00,
2013-11-11 20:38:00,47.4,34.2,29.91,SW,222,1.0,9.0,60,0.00,,,0.00,Wunderground v.1.15,2013-11-12 01:38:00,
2013-11-11 20:40:00,47.3,34.1,29.91,WSW,256,4.0,4.0,60,0.00,,,0.00,Wunderground v.1.15,2013-11-12 01:40:00,
2013-11-11 20:41:00,47.3,34.1,29.91,WSW,254,3.0,7.0,60,0.00,,,0.00,Wunderground v.1.15,2013-11-12 01:41:00,
2013-11-11 20:43:00,47.3,34.1,29.91,West,271,2.0,7.0,60,0.00,,,0.00,Wunderground v.1.15,2013-11-12 01:43:00,
2013-11-11 20:45:00,47.3,34.1,29.91,SW,215,4.0,7.0,60,0.00,,,0.00,Wunderground v.1.15,2013-11-12 01:45:00,
2013-11-11 20:46:00,47.3,34.1,29.91,SW,223,1.0,7.0,60,0.00,,,0.00,Wunderground v.1.15,2013-11-12 01:46:00,
2013-11-11 20:48:00,47.3,34.1,29.91,SSW,208,1.0,10.0,60,0.00,,,0.00,Wunderground v.1.15,2013-11-12 01:48:00,
2013-11-11 20:50:00,47.3,34.1,29.91,SW,232,0.0,3.0,60,0.00,,,0.00,Wunderground v.1.15,2013-11-12 01:50:00,
2013-11-11 20:51:00,47.3,34.1,29.90,SW,229,4.0,5.0,60,0.00,,,0.00,Wunderground v.1.15,2013-11-12 01:51:00,
2013-11-11 20:52:00,47.3,34.1,29.90,SSW,202,4.0,5.0,60,0.00,,,0.00,Wunderground v.1.15,2013-11-12 01:52:00,
2013-11-11 20:53:00,47.3,34.1,29.90,SW,232,2.0,7.0,60,0.00,,,0.00,Wunderground v.1.15,2013-11-12 01:53:00,
2013-11-11 20:55:00,47.3,34.1,29.90,WSW,249,3.0,8.0,60,0.00,,,0.00,Wunderground v.1.15,2013-11-12 01:55:00,
2013-11-11 20:57:00,47.3,34.1,29.90,WSW,257,5.0,10.0,60,0.00,,,0.00,Wunderground v.1.15,2013-11-12 01:57:00,
2013-11-11 20:58:00,47.3,34.1,29.90,West,275,3.0,10.0,60,0.00,,,0.00,Wunderground v.1.15,2013-11-12 01:58:00,
2013-11-11 21:02:00,47.2,34.0,29.90,WSW,253,3.0,6.0,60,0.00,,,0.00,Wunderground v.1.15,2013-11-12 02:02:00,
2013-11-11 21:03:00,47.3,34.1,29.90,SSW,209,0.0,6.0,60,0.00,,,0.00,Wunderground v.1.15,2013-11-12 02:03:00,
2013-11-11 21:05:00,47.3,34.1,29.90,WSW,252,3.0,6.0,60,0.00,,,0.00,Wunderground v.1.15,2013-11-12 02:05:00,
2013-11-11 21:07:00,47.3,34.1,29.90,West,279,1.0,11.0,60,0.00,,,0.00,Wunderground v.1.15,2013-11-12 02:07:00,
2013-11-11 21:08:00,47.2,34.0,29.90,SSW,202,3.0,11.0,60,0.00,,,0.00,Wunderground v.1.15,2013-11-12 02:08:00,
2013-11-11 21:09:00,47.2,34.0,29.90,SSW,205,3.0,11.0,60,0.00,,,0.00,Wunderground v.1.15,2013-11-12 02:09:00,
2013-11-11 21:10:00,47.2,34.0,29.90,SW,219,5.0,5.0,60,0.00,,,0.00,Wunderground v.1.15,2013-11-12 02:10:00,
2013-11-11 21:13:00,47.2,34.4,29.90,WSW,252,1.0,10.0,61,0.00,,,0.00,Wunderground v.1.15,2013-11-12 02:13:00,
2013-11-11 21:14:00,47.2,34.4,29.90,WSW,248,4.0,10.0,61,0.00,,,0.00,Wunderground v.1.15,2013-11-12 02:14:00,
2013-11-11 21:15:00,47.2,34.4,29.90,SSW,211,3.0,10.0,61,0.00,,,0.00,Wunderground v.1.15,2013-11-12 02:15:00,
2013-11-11 21:16:00,47.2,34.4,29.90,SSW,202,4.0,10.0,61,0.00,,,0.00,Wunderground v.1.15,2013-11-12 02:16:00,
2013-11-11 21:18:00,47.2,34.4,29.90,SSW,209,2.0,10.0,61,0.00,,,0.00,Wunderground v.1.15,2013-11-12 02:18:00,
2013-11-11 21:19:00,47.2,34.4,29.90,SW,217,0.0,10.0,61,0.00,,,0.00,Wunderground v.1.15,2013-11-12 02:19:00,
2013-11-11 21:20:00,47.2,34.4,29.90,WSW,246,0.0,4.0,61,0.00,,,0.00,Wunderground v.1.15,2013-11-12 02:20:00,
2013-11-11 21:22:00,47.2,34.4,29.90,SSW,195,4.0,9.0,61,0.00,,,0.00,Wunderground v.1.15,2013-11-12 02:22:00,
2013-11-11 21:23:00,47.2,34.4,29.90,WSW,256,2.0,9.0,61,0.00,,,0.00,Wunderground v.1.15,2013-11-12 02:23:00,
2013-11-11 21:24:00,47.2,34.4,29.90,WSW,252,6.0,9.0,61,0.00,,,0.00,Wunderground v.1.15,2013-11-12 02:24:00,
2013-11-11 21:25:00,47.2,34.4,29.90,SW,234,3.0,9.0,61,0.00,,,0.00,Wunderground v.1.15,2013-11-12 02:25:00,
2013-11-11 21:26:00,47.2,34.4,29.90,WSW,239,7.0,9.0,61,0.00,,,0.00,Wunderground v.1.15,2013-11-12 02:26:00,
2013-11-11 21:27:00,47.2,34.4,29.90,West,259,2.0,9.0,61,0.00,,,0.00,Wunderground v.1.15,2013-11-12 02:27:00,
2013-11-11 21:28:00,47.2,34.4,29.90,WSW,240,4.0,9.0,61,0.00,,,0.00,Wunderground v.1.15,2013-11-12 02:28:00,
2013-11-11 21:29:00,47.2,34.4,29.90,West,267,2.0,9.0,61,0.00,,,0.00,Wunderground v.1.15,2013-11-12 02:29:00,
2013-11-11 21:30:00,47.2,34.4,29.90,SW,230,2.0,4.0,61,0.00,,,0.00,Wunderground v.1.15,2013-11-12 02:30:00,
2013-11-11 21:31:00,47.2,34.4,29.90,WSW,249,2.0,6.0,61,0.00,,,0.00,Wunderground v.1.15,2013-11-12 02:31:00,
2013-11-11 21:32:00,47.2,34.4,29.90,West,272,2.0,6.0,61,0.00,,,0.00,Wunderground v.1.15,2013-11-12 02:32:00,
2013-11-11 21:34:00,47.2,34.4,29.90,WSW,250,0.0,6.0,61,0.00,,,0.00,Wunderground v.1.15,2013-11-12 02:34:00,
2013-11-11 21:35:00,47.2,34.8,29.90,WNW,288,2.0,6.0,62,0.00,,,0.00,Wunderground v.1.15,2013-11-12 02:35:00,
2013-11-11 21:36:00,47.2,34.8,29.90,NW,325,2.0,6.0,62,0.00,,,0.00,Wunderground v.1.15,2013-11-12 02:36:00,
2013-11-11 21:37:00,47.2,34.8,29.90,SW,214,3.0,7.0,62,0.00,,,0.00,Wunderground v.1.15,2013-11-12 02:37:00,
2013-11-11 21:38:00,47.2,34.8,29.90,SW,230,5.0,7.0,62,0.00,,,0.00,Wunderground v.1.15,2013-11-12 02:38:00,
2013-11-11 21:39:00,47.2,34.8,29.90,WSW,252,6.0,7.0,62,0.00,,,0.00,Wunderground v.1.15,2013-11-12 02:39:00,
2013-11-11 21:40:00,47.2,34.4,29.90,West,280,3.0,3.0,61,0.00,,,0.00,Wunderground v.1.15,2013-11-12 02:40:00,
2013-11-11 21:41:00,47.2,34.8,29.90,SSW,199,0.0,5.0,62,0.00,,,0.00,Wunderground v.1.15,2013-11-12 02:41:00,
2013-11-11 21:42:00,47.2,34.8,29.90,SSW,205,4.0,5.0,62,0.00,,,0.00,Wunderground v.1.15,2013-11-12 02:42:00,
2013-11-11 21:44:00,47.2,34.8,29.90,WSW,249,0.0,5.0,62,0.00,,,0.00,Wunderground v.1.15,2013-11-12 02:44:00,
2013-11-11 21:45:00,47.2,34.8,29.90,SSW,212,4.0,6.0,62,0.00,,,0.00,Wunderground v.1.15,2013-11-12 02:45:00,
2013-11-11 21:47:00,47.2,34.8,29.90,SW,227,2.0,6.0,62,0.00,,,0.00,Wunderground v.1.15,2013-11-12 02:47:00,
2013-11-11 21:49:00,47.2,34.8,29.90,SSW,195,3.0,6.0,62,0.00,,,0.00,Wunderground v.1.15,2013-11-12 02:49:00,
2013-11-11 21:50:00,47.2,34.8,29.89,SSW,205,3.0,5.0,62,0.00,,,0.00,Wunderground v.1.15,2013-11-12 02:50:00,
2013-11-11 21:51:00,47.2,34.8,29.89,WSW,246,4.0,5.0,62,0.00,,,0.00,Wunderground v.1.15,2013-11-12 02:51:00,
2013-11-11 21:52:00,47.2,34.8,29.89,SW,222,2.0,7.0,62,0.00,,,0.00,Wunderground v.1.15,2013-11-12 02:52:00,
2013-11-11 21:53:00,47.2,34.8,29.89,SW,223,0.0,7.0,62,0.00,,,0.00,Wunderground v.1.15,2013-11-12 02:53:00,
2013-11-11 21:54:00,47.2,34.8,29.89,SW,222,1.0,7.0,62,0.00,,,0.00,Wunderground v.1.15,2013-11-12 02:54:00,
2013-11-11 21:55:00,47.2,34.8,29.89,SW,222,0.0,7.0,62,0.00,,,0.00,Wunderground v.1.15,2013-11-12 02:55:00,
2013-11-11 21:57:00,47.2,34.8,29.89,SSW,196,1.0,7.0,62,0.00,,,0.00,Wunderground v.1.15,2013-11-12 02:57:00,
2013-11-11 21:58:00,47.2,34.8,29.89,SSW,202,4.0,7.0,62,0.00,,,0.00,Wunderground v.1.15,2013-11-12 02:58:00,
2013-11-11 21:59:00,47.2,34.8,29.89,SW,225,2.0,7.0,62,0.00,,,0.00,Wunderground v.1.15,2013-11-12 02:59:00,
2013-11-11 22:00:00,47.2,34.8,29.89,WSW,253,4.0,5.0,62,0.00,,,0.00,Wunderground v.1.15,2013-11-12 03:00:00,
2013-11-11 22:02:00,47.2,34.8,29.89,SSW,205,6.0,10.0,62,0.00,,,0.00,Wunderground v.1.15,2013-11-12 03:02:00,
2013-11-11 22:03:00,47.2,34.8,29.89,West,273,4.0,10.0,62,0.00,,,0.00,Wunderground v.1.15,2013-11-12 03:03:00,
2013-11-11 22:04:00,47.2,34.8,29.89,South,188,2.0,10.0,62,0.00,,,0.00,Wunderground v.1.15,2013-11-12 03:04:00,
2013-11-11 22:05:00,47.2,35.2,29.89,SSW,194,4.0,10.0,63,0.00,,,0.00,Wunderground v.1.15,2013-11-12 03:05:00,
2013-11-11 22:07:00,47.2,34.8,29.89,WSW,246,3.0,10.0,62,0.00,,,0.00,Wunderground v.1.15,2013-11-12 03:07:00,
2013-11-11 22:08:00,47.2,34.8,29.89,SSW,196,0.0,10.0,62,0.00,,,0.00,Wunderground v.1.15,2013-11-12 03:08:00,
2013-11-11 22:09:00,47.2,34.8,29.89,SSW,196,0.0,10.0,62,0.00,,,0.00,Wunderground v.1.15,2013-11-12 03:09:00,
2013-11-11 22:10:00,47.2,34.8,29.89,SSW,196,0.0,4.0,62,0.00,,,0.00,Wunderground v.1.15,2013-11-12 03:10:00,
2013-11-11 22:11:00,47.2,34.8,29.88,SSW,196,0.0,4.0,62,0.00,,,0.00,Wunderground v.1.15,2013-11-12 03:11:00,
2013-11-11 22:12:00,47.2,35.2,29.88,SW,215,2.0,6.0,63,0.00,,,0.00,Wunderground v.1.15,2013-11-12 03:12:00,
2013-11-11 22:14:00,47.2,34.8,29.88,SSW,202,0.0,6.0,62,0.00,,,0.00,Wunderground v.1.15,2013-11-12 03:14:00,
2013-11-11 22:15:00,47.2,35.2,29.88,West,265,5.0,6.0,63,0.00,,,0.00,Wunderground v.1.15,2013-11-12 03:15:00,
2013-11-11 22:16:00,47.2,35.2,29.88,SW,227,3.0,6.0,63,0.00,,,0.00,Wunderground v.1.15,2013-11-12 03:16:00,
2013-11-11 22:17:00,47.2,35.2,29.88,SW,228,0.0,6.0,63,0.00,,,0.00,Wunderground v.1.15,2013-11-12 03:17:00,
2013-11-11 22:19:00,47.2,35.2,29.88,West,272,2.0,6.0,63,0.00,,,0.00,Wunderground v.1.15,2013-11-12 03:19:00,
2013-11-11 22:20:00,47.2,35.2,29.88,SW,227,2.0,3.0,63,0.00,,,0.00,Wunderground v.1.15,2013-11-12 03:20:00,
2013-11-11 22:21:00,47.2,35.2,29.88,SW,223,1.0,4.0,63,0.00,,,0.00,Wunderground v.1.15,2013-11-12 03:21:00,
2013-11-11 22:22:00,47.2,34.8,29.88,SSW,213,0.0,4.0,62,0.00,,,0.00,Wunderground v.1.15,2013-11-12 03:22:00,
2013-11-11 22:24:00,47.2,35.2,29.88,West,269,0.0,5.0,63,0.00,,,0.00,Wunderground v.1.15,2013-11-12 03:24:00,
2013-11-11 22:25:00,47.2,35.2,29.88,SW,232,0.0,5.0,63,0.00,,,0.00,Wunderground v.1.15,2013-11-12 03:25:00,
2013-11-11 22:26:00,47.2,35.2,29.88,SW,232,2.0,5.0,63,0.00,,,0.00,Wunderground v.1.15,2013-11-12 03:26:00,
2013-11-11 22:28:00,47.2,35.2,29.88,SW,233,2.0,5.0,63,0.00,,,0.00,Wunderground v.1.15,2013-11-12 03:28:00,
2013-11-11 22:30:00,47.2,35.2,29.88,SW,215,2.0,3.0,63,0.00,,,0.00,Wunderground v.1.15,2013-11-12 03:30:00,
2013-11-11 22:31:00,47.2,35.2,29.88,WSW,255,3.0,3.0,63,0.00,,,0.00,Wunderground v.1.15,2013-11-12 03:31:00,
2013-11-11 22:33:00,47.2,35.2,29.88,WSW,244,2.0,4.0,63,0.00,,,0.00,Wunderground v.1.15,2013-11-12 03:33:00,
2013-11-11 22:34:00,47.2,35.2,29.88,SW,227,2.0,4.0,63,0.00,,,0.00,Wunderground v.1.15,2013-11-12 03:34:00,
2013-11-11 22:36:00,47.2,35.2,29.88,SW,233,1.0,4.0,63,0.00,,,0.00,Wunderground v.1.15,2013-11-12 03:36:00,
2013-11-11 22:38:00,47.2,35.2,29.88,WSW,238,3.0,7.0,63,0.00,,,0.00,Wunderground v.1.15,2013-11-12 03:38:00,
2013-11-11 22:39:00,47.2,35.2,29.88,WSW,252,1.0,7.0,63,0.00,,,0.00,Wunderground v.1.15,2013-11-12 03:39:00,
2013-11-11 22:41:00,47.2,35.2,29.88,SSW,211,6.0,6.0,63,0.00,,,0.00,Wunderground v.1.15,2013-11-12 03:41:00,
2013-11-11 22:43:00,47.2,35.2,29.88,WSW,246,0.0,7.0,63,0.00,,,0.00,Wunderground v.1.15,2013-11-12 03:43:00,
2013-11-11 22:45:00,47.2,35.2,29.87,SW,226,2.0,7.0,63,0.00,,,0.00,Wunderground v.1.15,2013-11-12 03:45:00,
2013-11-11 22:46:00,47.2,35.2,29.87,SSW,213,1.0,7.0,63,0.00,,,0.00,Wunderground v.1.15,2013-11-12 03:46:00,
2013-11-11 22:47:00,47.2,35.2,29.88,WSW,257,2.0,8.0,63,0.00,,,0.00,Wunderground v.1.15,2013-11-12 03:47:00,
2013-11-11 22:49:00,47.2,35.2,29.88,SW,230,1.0,8.0,63,0.00,,,0.00,Wunderground v.1.15,2013-11-12 03:49:00,
2013-11-11 22:50:00,47.2,35.2,29.87,SSW,209,2.0,2.0,63,0.00,,,0.00,Wunderground v.1.15,2013-11-12 03:50:00,
2013-11-11 22:51:00,47.2,35.2,29.87,WSW,253,3.0,4.0,63,0.00,,,0.00,Wunderground v.1.15,2013-11-12 03:51:00,
2013-11-11 22:52:00,47.2,35.2,29.87,SW,229,5.0,6.0,63,0.00,,,0.00,Wunderground v.1.15,2013-11-12 03:52:00,
2013-11-11 22:54:00,47.1,35.1,29.87,WSW,246,5.0,6.0,63,0.00,,,0.00,Wunderground v.1.15,2013-11-12 03:54:00,
2013-11-11 22:56:00,47.2,35.2,29.87,WSW,257,0.0,6.0,63,0.00,,,0.00,Wunderground v.1.15,2013-11-12 03:56:00,
2013-11-11 22:57:00,47.2,35.2,29.87,WSW,257,0.0,6.0,63,0.00,,,0.00,Wunderground v.1.15,2013-11-12 03:57:00,
2013-11-11 22:58:00,47.1,35.1,29.87,WSW,240,1.0,6.0,63,0.00,,,0.00,Wunderground v.1.15,2013-11-12 03:58:00,
2013-11-11 22:59:00,47.1,35.1,29.87,WSW,250,4.0,6.0,63,0.00,,,0.00,Wunderground v.1.15,2013-11-12 03:59:00,
2013-11-11 23:01:00,47.1,35.1,29.88,SW,217,2.0,7.0,63,0.00,,,0.00,Wunderground v.1.15,2013-11-12 04:01:00,
2013-11-11 23:02:00,47.1,35.1,29.87,SW,233,0.0,7.0,63,0.00,,,0.00,Wunderground v.1.15,2013-11-12 04:02:00,
2013-11-11 23:03:00,47.2,35.2,29.87,SW,233,0.0,7.0,63,0.00,,,0.00,Wunderground v.1.15,2013-11-12 04:03:00,
2013-11-11 23:04:00,47.1,35.1,29.87,SW,235,1.0,7.0,63,0.00,,,0.00,Wunderground v.1.15,2013-11-12 04:04:00,
2013-11-11 23:05:00,47.2,35.2,29.87,SW,215,3.0,7.0,63,0.00,,,0.00,Wunderground v.1.15,2013-11-12 04:05:00,
2013-11-11 23:06:00,47.2,35.2,29.87,WSW,242,1.0,7.0,63,0.00,,,0.00,Wunderground v.1.15,2013-11-12 04:06:00,
2013-11-11 23:07:00,47.2,35.2,29.87,SW,234,4.0,8.0,63,0.00,,,0.00,Wunderground v.1.15,2013-11-12 04:07:00,
2013-11-11 23:08:00,47.1,35.1,29.87,WSW,242,3.0,8.0,63,0.00,,,0.00,Wunderground v.1.15,2013-11-12 04:08:00,
2013-11-11 23:09:00,47.2,35.2,29.87,SW,236,2.0,8.0,63,0.00,,,0.00,Wunderground v.1.15,2013-11-12 04:09:00,
2013-11-11 23:11:00,47.1,35.1,29.87,SW,217,3.0,3.0,63,0.00,,,0.00,Wunderground v.1.15,2013-11-12 04:11:00,
2013-11-11 23:13:00,47.2,35.2,29.87,WSW,248,3.0,7.0,63,0.00,,,0.00,Wunderground v.1.15,2013-11-12 04:13:00,
2013-11-11 23:14:00,47.1,35.5,29.87,SW,228,2.0,7.0,64,0.00,,,0.00,Wunderground v.1.15,2013-11-12 04:14:00,
2013-11-11 23:16:00,47.2,35.6,29.87,WSW,240,0.0,8.0,64,0.00,,,0.00,Wunderground v.1.15,2013-11-12 04:16:00,
2013-11-11 23:18:00,47.1,35.1,29.87,SW,228,0.0,8.0,63,0.00,,,0.00,Wunderground v.1.15,2013-11-12 04:18:00,
2013-11-11 23:19:00,47.2,35.2,29.87,SW,227,0.0,8.0,63,0.00,,,0.00,Wunderground v.1.15,2013-11-12 04:19:00,
2013-11-11 23:20:00,47.2,35.6,29.87,SW,225,1.0,2.0,64,0.00,,,0.00,Wunderground v.1.15,2013-11-12 04:20:00,
2013-11-11 23:21:00,47.2,35.6,29.87,SW,236,3.0,4.0,64,0.00,,,0.00,Wunderground v.1.15,2013-11-12 04:21:00,
2013-11-11 23:24:00,47.1,35.5,29.87,West,273,2.0,5.0,64,0.00,,,0.00,Wunderground v.1.15,2013-11-12 04:24:00,
2013-11-11 23:25:00,47.1,35.5,29.87,West,273,0.0,5.0,64,0.00,,,0.00,Wunderground v.1.15,2013-11-12 04:25:00,
2013-11-11 23:26:00,47.1,35.5,29.87,SSW,193,5.0,5.0,64,0.00,,,0.00,Wunderground v.1.15,2013-11-12 04:26:00,
2013-11-11 23:29:00,47.2,35.6,29.87,WSW,257,0.0,7.0,64,0.00,,,0.00,Wunderground v.1.15,2013-11-12 04:29:00,
2013-11-11 23:30:00,47.2,35.6,29.88,WSW,248,2.0,5.0,64,0.00,,,0.00,Wunderground v.1.15,2013-11-12 04:30:00,
2013-11-11 23:31:00,47.2,35.6,29.87,South,188,1.0,5.0,64,0.00,,,0.00,Wunderground v.1.15,2013-11-12 04:31:00,
2013-11-11 23:34:00,47.2,35.6,29.87,SW,233,4.0,6.0,64,0.00,,,0.00,Wunderground v.1.15,2013-11-12 04:34:00,
2013-11-11 23:35:00,47.2,35.6,29.87,WSW,250,3.0,6.0,64,0.00,,,0.00,Wunderground v.1.15,2013-11-12 04:35:00,
2013-11-11 23:37:00,47.2,35.6,29.88,West,275,2.0,6.0,64,0.00,,,0.00,Wunderground v.1.15,2013-11-12 04:37:00,
2013-11-11 23:39:00,47.2,35.6,29.88,West,265,3.0,3.0,64,0.00,,,0.00,Wunderground v.1.15,2013-11-12 04:39:00,
2013-11-11 23:40:00,47.2,35.6,29.88,WSW,254,5.0,5.0,64,0.00,,,0.00,Wunderground v.1.15,2013-11-12 04:40:00,
2013-11-11 23:41:00,47.2,35.6,29.88,WSW,244,7.0,7.0,64,0.00,,,0.00,Wunderground v.1.15,2013-11-12 04:41:00,
2013-11-11 23:42:00,47.2,35.6,29.87,WSW,257,2.0,7.0,64,0.00,,,0.00,Wunderground v.1.15,2013-11-12 04:42:00,
2013-11-11 23:45:00,47.2,35.6,29.87,SSW,207,1.0,7.0,64,0.00,,,0.00,Wunderground v.1.15,2013-11-12 04:45:00,
2013-11-11 23:46:00,47.2,35.6,29.87,WSW,250,2.0,7.0,64,0.00,,,0.00,Wunderground v.1.15,2013-11-12 04:46:00,
2013-11-11 23:47:00,47.2,35.6,29.87,West,278,2.0,7.0,64,0.00,,,0.00,Wunderground v.1.15,2013-11-12 04:47:00,
2013-11-11 23:48:00,47.2,35.6,29.87,SSW,200,1.0,7.0,64,0.00,,,0.00,Wunderground v.1.15,2013-11-12 04:48:00,
2013-11-11 23:50:00,47.2,35.6,29.87,SW,234,1.0,3.0,64,0.00,,,0.00,Wunderground v.1.15,2013-11-12 04:50:00,
2013-11-11 23:51:00,47.2,35.6,29.87,WSW,250,2.0,3.0,64,0.00,,,0.00,Wunderground v.1.15,2013-11-12 04:51:00,
2013-11-11 23:52:00,47.2,35.6,29.87,SW,229,2.0,8.0,64,0.00,,,0.00,Wunderground v.1.15,2013-11-12 04:52:00,
2013-11-11 23:53:00,47.2,35.6,29.87,WSW,244,0.0,8.0,64,0.00,,,0.00,Wunderground v.1.15,2013-11-12 04:53:00,
2013-11-11 23:55:00,47.2,35.6,29.87,WSW,242,6.0,10.0,64,0.00,,,0.00,Wunderground v.1.15,2013-11-12 04:55:00,
2013-11-11 23:56:00,47.2,35.6,29.87,WSW,243,2.0,10.0,64,0.00,,,0.00,Wunderground v.1.15,2013-11-12 04:56:00,
2013-11-11 23:57:00,47.2,35.6,29.87,WSW,243,1.0,10.0,64,0.00,,,0.00,Wunderground v.1.15,2013-11-12 04:57:00,
2013-11-11 23:59:00,47.2,35.6,29.87,SW,225,2.0,10.0,64,0.00,,,0.00,Wunderground v.1.15,2013-11-12 04:59:00,